Time,TemperatureF,DewpointF,PressureIn,WindDirection,WindDirectionDegrees,WindSpeedMPH,WindSpeedGustMPH,Humidity,HourlyPrecipIn,Conditions,Clouds,dailyrainin,SolarRadiationWatts/m^2,SoftwareType,DateUTC
2013-06-15 00:00:00,67.2,65.2,29.99,NNE,19,0.0,0.0,93,0.00,,,0.00,0.00,VWS V14.01,2013-06-15 04:00:00,
2013-06-15 00:01:00,67.2,65.5,29.99,NNE,19,0.0,0.0,94,0.00,,,0.00,0.00,VWS V14.01,2013-06-15 04:01:00,
2013-06-15 00:02:00,67.2,65.5,29.99,NNE,19,0.0,0.0,94,0.00,,,0.00,0.00,VWS V14.01,2013-06-15 04:02:00,
2013-06-15 00:03:00,67.2,65.4,29.99,NNE,19,0.0,0.0,94,0.00,,,0.00,0.00,VWS V14.01,2013-06-15 04:03:00,
2013-06-15 00:04:00,67.2,65.4,29.99,NNE,19,0.0,0.0,94,0.00,,,0.00,0.00,VWS V14.01,2013-06-15 04:04:00,
2013-06-15 00:05:00,67.1,65.3,29.99,NNE,19,0.0,0.0,94,0.00,,,0.00,0.00,VWS V14.01,2013-06-15 04:05:00,
2013-06-15 00:06:00,67.1,65.3,29.99,NNE,19,0.0,0.0,94,0.00,,,0.00,0.00,VWS V14.01,2013-06-15 04:06:00,
2013-06-15 00:07:00,67.1,65.3,29.99,NNE,19,0.0,0.0,94,0.00,,,0.00,0.00,VWS V14.01,2013-06-15 04:07:00,
2013-06-15 00:08:00,67.1,65.3,29.99,NNE,19,0.0,0.0,94,0.00,,,0.00,0.00,VWS V14.01,2013-06-15 04:08:00,
2013-06-15 00:09:00,66.9,65.2,29.99,NNE,19,0.0,0.0,94,0.00,,,0.00,0.00,VWS V14.01,2013-06-15 04:09:00,
2013-06-15 00:10:00,66.8,65.1,29.99,NNE,19,0.0,0.0,94,0.00,,,0.00,0.00,VWS V14.01,2013-06-15 04:10:00,
2013-06-15 00:11:00,66.8,65.1,29.99,NNE,19,0.0,0.0,94,0.00,,,0.00,0.00,VWS V14.01,2013-06-15 04:11:00,
2013-06-15 00:12:00,66.8,65.1,29.99,NNE,19,0.0,0.0,94,0.00,,,0.00,0.00,VWS V14.01,2013-06-15 04:12:00,
2013-06-15 00:13:00,66.8,65.0,29.99,NNE,19,0.0,0.0,94,0.00,,,0.00,0.00,VWS V14.01,2013-06-15 04:13:00,
2013-06-15 00:14:00,66.8,65.0,29.99,NNE,19,0.0,0.0,94,0.00,,,0.00,0.00,VWS V14.01,2013-06-15 04:14:00,
2013-06-15 00:15:00,66.8,65.0,29.99,NNE,19,0.0,0.0,94,0.00,,,0.00,0.00,VWS V14.01,2013-06-15 04:15:00,
2013-06-15 00:16:00,66.8,65.0,29.99,NNE,19,0.0,0.0,94,0.00,,,0.00,0.00,VWS V14.01,2013-06-15 04:16:00,
2013-06-15 00:17:00,66.8,65.0,29.99,NNE,19,0.0,0.0,94,0.00,,,0.00,0.00,VWS V14.01,2013-06-15 04:17:00,
2013-06-15 00:18:00,66.8,65.0,29.99,NNE,19,0.0,0.0,94,0.00,,,0.00,0.00,VWS V14.01,2013-06-15 04:18:00,
2013-06-15 00:19:00,66.8,65.0,29.99,NNE,19,0.0,0.0,94,0.00,,,0.00,0.00,VWS V14.01,2013-06-15 04:19:00,
2013-06-15 00:20:00,66.8,65.0,29.99,NNE,19,0.0,0.0,94,0.00,,,0.00,0.00,VWS V14.01,2013-06-15 04:20:00,
2013-06-15 00:21:00,66.8,65.0,29.99,NNE,19,0.0,0.0,94,0.00,,,0.00,0.00,VWS V14.01,2013-06-15 04:21:00,
2013-06-15 00:22:00,66.8,65.1,29.99,NNE,19,0.0,0.0,94,0.00,,,0.00,0.00,VWS V14.01,2013-06-15 04:22:00,
2013-06-15 00:23:00,66.8,65.1,29.99,NNE,19,0.0,0.0,94,0.00,,,0.00,0.00,VWS V14.01,2013-06-15 04:23:00,
2013-06-15 00:24:00,66.8,65.1,29.99,NNE,19,0.0,0.0,94,0.00,,,0.00,0.00,VWS V14.01,2013-06-15 04:24:00,
2013-06-15 00:25:00,66.8,65.0,29.99,NNE,19,0.0,0.0,94,0.00,,,0.00,0.00,VWS V14.01,2013-06-15 04:25:00,
2013-06-15 00:26:00,66.8,65.0,29.99,NNE,19,0.0,0.0,94,0.00,,,0.00,0.00,VWS V14.01,2013-06-15 04:26:00,
2013-06-15 00:27:00,66.8,65.0,29.99,NNE,19,0.0,0.0,94,0.00,,,0.00,0.00,VWS V14.01,2013-06-15 04:27:00,
2013-06-15 00:28:00,66.7,64.9,29.99,NNE,19,0.0,0.0,94,0.00,,,0.00,0.00,VWS V14.01,2013-06-15 04:28:00,
2013-06-15 00:29:00,66.7,64.9,29.99,NNE,19,0.0,0.0,94,0.00,,,0.00,0.00,VWS V14.01,2013-06-15 04:29:00,
2013-06-15 00:30:00,66.7,64.9,29.99,NNE,19,0.0,0.0,94,0.00,,,0.00,0.00,VWS V14.01,2013-06-15 04:30:00,
2013-06-15 00:31:00,66.7,64.9,29.99,NNE,19,0.0,0.0,94,0.00,,,0.00,0.00,VWS V14.01,2013-06-15 04:31:00,
2013-06-15 00:32:00,66.7,64.9,29.99,NNE,19,0.0,0.0,94,0.00,,,0.00,0.00,VWS V14.01,2013-06-15 04:32:00,
2013-06-15 00:33:00,66.6,65.1,29.99,NNE,19,0.0,0.0,95,0.00,,,0.00,0.00,VWS V14.01,2013-06-15 04:33:00,
2013-06-15 00:34:00,66.6,64.8,29.99,NNE,19,0.0,0.0,94,0.00,,,0.00,0.00,VWS V14.01,2013-06-15 04:34:00,
2013-06-15 00:35:00,66.6,65.1,29.99,NNE,19,0.0,0.0,95,0.00,,,0.00,0.00,VWS V14.01,2013-06-15 04:35:00,
2013-06-15 00:36:00,66.6,65.1,29.99,NNE,19,0.0,0.0,95,0.00,,,0.00,0.00,VWS V14.01,2013-06-15 04:36:00,
2013-06-15 00:37:00,66.6,65.1,29.99,NNE,19,0.0,0.0,95,0.00,,,0.00,0.00,VWS V14.01,2013-06-15 04:37:00,
2013-06-15 00:38:00,66.6,65.1,29.99,NNE,19,0.0,0.0,95,0.00,,,0.00,0.00,VWS V14.01,2013-06-15 04:38:00,
2013-06-15 00:39:00,66.6,65.1,29.99,NNE,19,0.0,0.0,95,0.00,,,0.00,0.00,VWS V14.01,2013-06-15 04:39:00,
2013-06-15 00:40:00,66.6,65.1,29.99,NNE,19,0.0,0.0,95,0.00,,,0.00,0.00,VWS V14.01,2013-06-15 04:40:00,
2013-06-15 00:41:00,66.6,65.1,29.99,NNE,19,0.0,0.0,95,0.00,,,0.00,0.00,VWS V14.01,2013-06-15 04:41:00,
2013-06-15 00:42:00,66.4,65.0,29.99,NNE,19,0.0,0.0,95,0.00,,,0.00,0.00,VWS V14.01,2013-06-15 04:42:00,
2013-06-15 00:43:00,66.4,65.0,29.99,NNE,19,0.0,0.0,95,0.00,,,0.00,0.00,VWS V14.01,2013-06-15 04:43:00,
2013-06-15 00:44:00,66.3,64.9,29.99,NNE,19,0.0,0.0,95,0.00,,,0.00,0.00,VWS V14.01,2013-06-15 04:44:00,
2013-06-15 00:45:00,66.3,64.9,29.99,NNE,19,0.0,0.0,95,0.00,,,0.00,0.00,VWS V14.01,2013-06-15 04:45:00,
2013-06-15 00:46:00,66.3,64.9,29.99,NNE,19,0.0,0.0,95,0.00,,,0.00,0.00,VWS V14.01,2013-06-15 04:46:00,
2013-06-15 00:47:00,66.3,64.9,29.99,NNE,19,0.0,0.0,95,0.00,,,0.00,0.00,VWS V14.01,2013-06-15 04:47:00,
2013-06-15 00:48:00,66.2,64.8,30.00,NNE,19,0.0,0.0,95,0.00,,,0.00,0.00,VWS V14.01,2013-06-15 04:48:00,
2013-06-15 00:49:00,66.2,64.8,30.00,NNE,19,0.0,0.0,95,0.00,,,0.00,0.00,VWS V14.01,2013-06-15 04:49:00,
2013-06-15 00:50:00,66.2,64.8,30.00,NNE,19,0.0,0.0,95,0.00,,,0.00,0.00,VWS V14.01,2013-06-15 04:50:00,
2013-06-15 00:51:00,66.3,64.9,30.00,NNE,19,0.0,0.0,95,0.00,,,0.00,0.00,VWS V14.01,2013-06-15 04:51:00,
2013-06-15 00:52:00,66.3,64.9,30.00,NNE,19,0.0,0.0,95,0.00,,,0.00,0.00,VWS V14.01,2013-06-15 04:52:00,
2013-06-15 00:53:00,66.3,64.9,30.00,NNE,19,0.0,0.0,95,0.00,,,0.00,0.00,VWS V14.01,2013-06-15 04:53:00,
2013-06-15 00:54:00,66.3,64.9,30.00,NNE,19,0.0,0.0,95,0.00,,,0.00,0.00,VWS V14.01,2013-06-15 04:54:00,
2013-06-15 00:55:00,66.3,64.9,30.00,NNE,19,0.0,0.0,95,0.00,,,0.00,0.00,VWS V14.01,2013-06-15 04:55:00,
2013-06-15 00:56:00,66.3,64.9,30.00,NNE,19,0.0,0.0,95,0.00,,,0.00,0.00,VWS V14.01,2013-06-15 04:56:00,
2013-06-15 00:57:00,66.4,65.0,30.00,NNE,19,0.0,0.0,95,0.00,,,0.00,0.00,VWS V14.01,2013-06-15 04:57:00,
2013-06-15 00:58:00,66.4,65.0,30.00,NNE,19,0.0,0.0,95,0.00,,,0.00,0.00,VWS V14.01,2013-06-15 04:58:00,
2013-06-15 00:59:00,66.3,64.9,30.00,NNE,19,0.0,0.0,95,0.00,,,0.00,0.00,VWS V14.01,2013-06-15 04:59:00,
2013-06-15 01:00:00,66.3,64.9,30.00,NNE,19,0.0,0.0,95,0.00,,,0.00,0.00,VWS V14.01,2013-06-15 05:00:00,
2013-06-15 01:01:00,66.3,64.9,30.00,NNE,19,0.0,0.0,95,0.00,,,0.00,0.00,VWS V14.01,2013-06-15 05:01:00,
2013-06-15 01:02:00,66.3,64.9,30.00,NNE,19,0.0,0.0,95,0.00,,,0.00,0.00,VWS V14.01,2013-06-15 05:02:00,
2013-06-15 01:03:00,66.2,64.8,30.00,NNE,19,0.0,0.0,95,0.00,,,0.00,0.00,VWS V14.01,2013-06-15 05:03:00,
2013-06-15 01:04:00,66.2,64.8,30.00,NNE,19,0.0,0.0,95,0.00,,,0.00,0.00,VWS V14.01,2013-06-15 05:04:00,
2013-06-15 01:05:00,66.2,64.8,30.00,NNE,19,0.0,0.0,95,0.00,,,0.00,0.00,VWS V14.01,2013-06-15 05:05:00,
2013-06-15 01:06:00,66.2,64.8,30.00,NNE,19,0.0,0.0,95,0.00,,,0.00,0.00,VWS V14.01,2013-06-15 05:06:00,
2013-06-15 01:07:00,66.2,64.8,30.00,NNE,19,0.0,0.0,95,0.00,,,0.00,0.00,VWS V14.01,2013-06-15 05:07:00,
2013-06-15 01:08:00,66.2,64.8,30.00,NNE,19,0.0,0.0,95,0.00,,,0.00,0.00,VWS V14.01,2013-06-15 05:08:00,
2013-06-15 01:09:00,66.2,64.8,30.00,NNE,19,0.0,0.0,95,0.00,,,0.00,0.00,VWS V14.01,2013-06-15 05:09:00,
2013-06-15 01:10:00,66.2,64.8,30.00,NNE,19,0.0,0.0,95,0.00,,,0.00,0.00,VWS V14.01,2013-06-15 05:10:00,
2013-06-15 01:11:00,66.2,64.8,30.00,NNE,19,0.0,0.0,95,0.00,,,0.00,0.00,VWS V14.01,2013-06-15 05:11:00,
2013-06-15 01:12:00,66.2,64.7,30.00,NNE,19,0.0,0.0,95,0.00,,,0.00,0.00,VWS V14.01,2013-06-15 05:12:00,
2013-06-15 01:13:00,66.2,64.7,30.00,NNE,19,0.0,0.0,95,0.00,,,0.00,0.00,VWS V14.01,2013-06-15 05:13:00,
2013-06-15 01:14:00,66.2,64.7,30.00,NNE,19,0.0,0.0,95,0.00,,,0.00,0.00,VWS V14.01,2013-06-15 05:14:00,
2013-06-15 01:15:00,66.2,64.7,30.00,NNE,19,0.0,0.0,95,0.00,,,0.00,0.00,VWS V14.01,2013-06-15 05:15:00,
2013-06-15 01:16:00,66.2,65.0,30.00,NNE,19,0.0,0.0,96,0.00,,,0.00,0.00,VWS V14.01,2013-06-15 05:16:00,
2013-06-15 01:17:00,66.2,65.1,30.01,NNE,19,0.0,0.0,96,0.00,,,0.00,0.00,VWS V14.01,2013-06-15 05:17:00,
2013-06-15 01:18:00,66.2,65.1,30.01,NNE,19,0.0,0.0,96,0.00,,,0.00,0.00,VWS V14.01,2013-06-15 05:18:00,
2013-06-15 01:19:00,66.2,65.1,30.01,NNE,19,0.0,0.0,96,0.00,,,0.00,0.00,VWS V14.01,2013-06-15 05:19:00,
2013-06-15 01:20:00,66.2,65.1,30.00,NNE,19,0.0,0.0,96,0.00,,,0.00,0.00,VWS V14.01,2013-06-15 05:20:00,
2013-06-15 01:21:00,66.2,65.1,30.00,NNE,19,0.0,0.0,96,0.00,,,0.00,0.00,VWS V14.01,2013-06-15 05:21:00,
2013-06-15 01:22:00,66.2,65.1,30.01,NNE,19,0.0,0.0,96,0.00,,,0.00,0.00,VWS V14.01,2013-06-15 05:22:00,
2013-06-15 01:23:00,66.2,65.1,30.00,NNE,19,0.0,0.0,96,0.00,,,0.00,0.00,VWS V14.01,2013-06-15 05:23:00,
2013-06-15 01:24:00,66.2,65.1,30.00,NNE,19,0.0,0.0,96,0.00,,,0.00,0.00,VWS V14.01,2013-06-15 05:24:00,
2013-06-15 01:25:00,66.2,65.1,30.01,NNE,19,0.0,0.0,96,0.00,,,0.00,0.00,VWS V14.01,2013-06-15 05:25:00,
2013-06-15 01:26:00,66.2,65.0,30.01,NNE,19,0.0,0.0,96,0.00,,,0.00,0.00,VWS V14.01,2013-06-15 05:26:00,
2013-06-15 01:27:00,66.2,65.0,30.01,NNE,19,0.0,0.0,96,0.00,,,0.00,0.00,VWS V14.01,2013-06-15 05:27:00,
2013-06-15 01:28:00,66.2,65.0,30.01,NNE,19,0.0,0.0,96,0.00,,,0.00,0.00,VWS V14.01,2013-06-15 05:28:00,
2013-06-15 01:29:00,66.2,65.0,30.00,NNE,19,0.0,0.0,96,0.00,,,0.00,0.00,VWS V14.01,2013-06-15 05:29:00,
2013-06-15 01:30:00,66.2,65.0,30.01,NNE,19,0.0,0.0,96,0.00,,,0.00,0.00,VWS V14.01,2013-06-15 05:30:00,
2013-06-15 01:31:00,66.2,65.0,30.01,NNE,19,0.0,0.0,96,0.00,,,0.00,0.00,VWS V14.01,2013-06-15 05:31:00,
2013-06-15 01:32:00,66.2,65.1,30.01,NNE,19,0.0,0.0,96,0.00,,,0.00,0.00,VWS V14.01,2013-06-15 05:32:00,
2013-06-15 01:33:00,66.2,65.1,30.01,NNE,19,0.0,0.0,96,0.00,,,0.00,0.00,VWS V14.01,2013-06-15 05:33:00,
2013-06-15 01:34:00,66.3,65.2,30.01,NNE,19,0.0,0.0,96,0.00,,,0.00,0.00,VWS V14.01,2013-06-15 05:34:00,
2013-06-15 01:35:00,66.3,65.2,30.01,NNE,19,0.0,0.0,96,0.00,,,0.00,0.00,VWS V14.01,2013-06-15 05:35:00,
2013-06-15 01:36:00,66.3,65.2,30.01,NNE,19,0.0,0.0,96,0.00,,,0.00,0.00,VWS V14.01,2013-06-15 05:36:00,
2013-06-15 01:37:00,66.4,65.3,30.01,NNE,19,0.0,0.0,96,0.00,,,0.00,0.00,VWS V14.01,2013-06-15 05:37:00,
2013-06-15 01:38:00,66.4,65.3,30.01,NNE,19,0.0,0.0,96,0.00,,,0.00,0.00,VWS V14.01,2013-06-15 05:38:00,
2013-06-15 01:39:00,66.4,65.3,30.01,NNE,19,0.0,0.0,96,0.00,,,0.00,0.00,VWS V14.01,2013-06-15 05:39:00,
2013-06-15 01:40:00,66.4,65.3,30.01,NNE,19,0.0,0.0,96,0.00,,,0.00,0.00,VWS V14.01,2013-06-15 05:40:00,
2013-06-15 01:41:00,66.3,65.2,30.01,NNE,19,0.0,0.0,96,0.00,,,0.00,0.00,VWS V14.01,2013-06-15 05:41:00,
2013-06-15 01:42:00,66.3,65.2,30.01,NNE,19,0.0,0.0,96,0.00,,,0.00,0.00,VWS V14.01,2013-06-15 05:42:00,
2013-06-15 01:43:00,66.2,65.1,30.01,NNE,19,0.0,0.0,96,0.00,,,0.00,0.00,VWS V14.01,2013-06-15 05:43:00,
2013-06-15 01:44:00,66.2,65.1,30.01,NNE,19,0.0,0.0,96,0.00,,,0.00,0.00,VWS V14.01,2013-06-15 05:44:00,
2013-06-15 01:45:00,66.2,65.0,30.01,NNE,19,0.0,0.0,96,0.00,,,0.00,0.00,VWS V14.01,2013-06-15 05:45:00,
2013-06-15 01:46:00,66.2,65.0,30.01,NNE,19,0.0,0.0,96,0.00,,,0.00,0.00,VWS V14.01,2013-06-15 05:46:00,
2013-06-15 01:47:00,66.2,65.0,30.01,NNE,19,0.0,0.0,96,0.00,,,0.00,0.00,VWS V14.01,2013-06-15 05:47:00,
2013-06-15 01:48:00,66.2,65.0,30.01,NNE,19,0.0,0.0,96,0.00,,,0.00,0.00,VWS V14.01,2013-06-15 05:48:00,
2013-06-15 01:49:00,66.2,65.0,30.01,NNE,19,0.0,0.0,96,0.00,,,0.00,0.00,VWS V14.01,2013-06-15 05:49:00,
2013-06-15 01:50:00,66.1,64.9,30.01,NNE,19,0.0,0.0,96,0.00,,,0.00,0.00,VWS V14.01,2013-06-15 05:50:00,
2013-06-15 01:51:00,66.1,64.9,30.01,NNE,19,0.0,0.0,96,0.00,,,0.00,0.00,VWS V14.01,2013-06-15 05:51:00,
2013-06-15 01:52:00,66.1,64.9,30.01,NNE,19,0.0,0.0,96,0.00,,,0.00,0.00,VWS V14.01,2013-06-15 05:52:00,
2013-06-15 01:53:00,66.1,64.9,30.01,NNE,19,0.0,0.0,96,0.00,,,0.00,0.00,VWS V14.01,2013-06-15 05:53:00,
2013-06-15 01:54:00,66.1,64.9,30.01,NNE,19,0.0,0.0,96,0.00,,,0.00,0.00,VWS V14.01,2013-06-15 05:54:00,
2013-06-15 01:55:00,66.1,64.9,30.01,NNE,19,0.0,0.0,96,0.00,,,0.00,0.00,VWS V14.01,2013-06-15 05:55:00,
2013-06-15 01:56:00,66.1,64.9,30.01,NNE,19,0.0,0.0,96,0.00,,,0.00,0.00,VWS V14.01,2013-06-15 05:56:00,
2013-06-15 01:57:00,66.1,64.9,30.01,NNE,19,0.0,0.0,96,0.00,,,0.00,0.00,VWS V14.01,2013-06-15 05:57:00,
2013-06-15 01:58:00,66.1,64.9,30.01,NNE,19,0.0,0.0,96,0.00,,,0.00,0.00,VWS V14.01,2013-06-15 05:58:00,
2013-06-15 01:59:00,65.9,64.8,30.01,NNE,19,0.0,0.0,96,0.00,,,0.00,0.00,VWS V14.01,2013-06-15 05:59:00,
2013-06-15 02:00:00,65.9,64.8,30.00,NNE,19,0.0,0.0,96,0.00,,,0.00,0.00,VWS V14.01,2013-06-15 06:00:00,
2013-06-15 02:01:00,65.9,64.8,30.00,NNE,19,0.0,0.0,96,0.00,,,0.00,0.00,VWS V14.01,2013-06-15 06:01:00,
2013-06-15 02:02:00,65.9,64.8,30.00,NNE,19,0.0,0.0,96,0.00,,,0.00,0.00,VWS V14.01,2013-06-15 06:02:00,
2013-06-15 02:03:00,65.9,64.8,30.00,NNE,19,0.0,0.0,96,0.00,,,0.00,0.00,VWS V14.01,2013-06-15 06:03:00,
2013-06-15 02:04:00,65.8,64.7,30.00,NNE,19,0.0,0.0,96,0.00,,,0.00,0.00,VWS V14.01,2013-06-15 06:04:00,
2013-06-15 02:05:00,65.8,64.7,30.00,NNE,19,0.0,0.0,96,0.00,,,0.00,0.00,VWS V14.01,2013-06-15 06:05:00,
2013-06-15 02:06:00,65.8,64.7,30.00,NNE,19,0.0,0.0,96,0.00,,,0.00,0.00,VWS V14.01,2013-06-15 06:06:00,
2013-06-15 02:07:00,65.8,64.7,30.01,NNE,19,0.0,0.0,96,0.00,,,0.00,0.00,VWS V14.01,2013-06-15 06:07:00,
2013-06-15 02:08:00,65.8,64.7,30.01,NNE,19,0.0,0.0,96,0.00,,,0.00,0.00,VWS V14.01,2013-06-15 06:08:00,
2013-06-15 02:09:00,65.8,64.7,30.01,NNE,19,0.0,0.0,96,0.00,,,0.00,0.00,VWS V14.01,2013-06-15 06:09:00,
2013-06-15 02:10:00,65.8,64.7,30.01,NNE,19,0.0,0.0,96,0.00,,,0.00,0.00,VWS V14.01,2013-06-15 06:10:00,
2013-06-15 02:11:00,65.8,64.7,30.01,NNE,19,0.0,0.0,96,0.00,,,0.00,0.00,VWS V14.01,2013-06-15 06:11:00,
2013-06-15 02:12:00,65.8,64.7,30.01,NNE,19,0.0,0.0,96,0.00,,,0.00,0.00,VWS V14.01,2013-06-15 06:12:00,
2013-06-15 02:13:00,65.8,64.6,30.01,NNE,19,0.0,0.0,96,0.00,,,0.00,0.00,VWS V14.01,2013-06-15 06:13:00,
2013-06-15 02:14:00,65.8,64.7,30.01,NNE,19,0.0,0.0,96,0.00,,,0.00,0.00,VWS V14.01,2013-06-15 06:14:00,
2013-06-15 02:15:00,65.8,64.6,30.01,NNE,19,0.0,0.0,96,0.00,,,0.00,0.00,VWS V14.01,2013-06-15 06:15:00,
2013-06-15 02:16:00,65.8,64.7,30.01,NNE,19,0.0,0.0,96,0.00,,,0.00,0.00,VWS V14.01,2013-06-15 06:16:00,
2013-06-15 02:17:00,65.8,64.6,30.01,NNE,19,0.0,0.0,96,0.00,,,0.00,0.00,VWS V14.01,2013-06-15 06:17:00,
2013-06-15 02:18:00,65.8,64.6,30.01,NNE,19,0.0,0.0,96,0.00,,,0.00,0.00,VWS V14.01,2013-06-15 06:18:00,
2013-06-15 02:19:00,65.8,64.6,30.01,NNE,19,0.0,0.0,96,0.00,,,0.00,0.00,VWS V14.01,2013-06-15 06:19:00,
2013-06-15 02:20:00,65.7,64.5,30.01,NNE,19,0.0,0.0,96,0.00,,,0.00,0.00,VWS V14.01,2013-06-15 06:20:00,
2013-06-15 02:21:00,65.7,64.5,30.01,NNE,19,0.0,0.0,96,0.00,,,0.00,0.00,VWS V14.01,2013-06-15 06:21:00,
2013-06-15 02:22:00,65.8,64.6,30.01,NNE,19,0.0,0.0,96,0.00,,,0.00,0.00,VWS V14.01,2013-06-15 06:22:00,
2013-06-15 02:23:00,65.8,64.6,30.01,NNE,19,0.0,0.0,96,0.00,,,0.00,0.00,VWS V14.01,2013-06-15 06:23:00,
2013-06-15 02:24:00,65.8,64.6,30.01,NNE,19,0.0,0.0,96,0.00,,,0.00,0.00,VWS V14.01,2013-06-15 06:24:00,
2013-06-15 02:25:00,65.8,65.0,30.01,NNE,19,0.0,1.1,97,0.00,,,0.00,0.00,VWS V14.01,2013-06-15 06:25:00,
2013-06-15 02:26:00,65.8,65.0,30.01,NNE,19,0.0,1.1,97,0.00,,,0.00,0.00,VWS V14.01,2013-06-15 06:26:00,
2013-06-15 02:27:00,65.8,65.0,30.01,NNE,19,0.0,0.0,97,0.00,,,0.00,0.00,VWS V14.01,2013-06-15 06:27:00,
2013-06-15 02:28:00,65.8,65.0,30.01,NNE,19,0.0,0.0,97,0.00,,,0.00,0.00,VWS V14.01,2013-06-15 06:28:00,
2013-06-15 02:29:00,65.8,65.0,30.01,NNE,19,0.0,0.0,97,0.00,,,0.00,0.00,VWS V14.01,2013-06-15 06:29:00,
2013-06-15 02:30:00,65.8,64.6,30.01,NNE,19,0.0,0.0,96,0.00,,,0.00,0.00,VWS V14.01,2013-06-15 06:30:00,
2013-06-15 02:31:00,65.8,64.6,30.01,NNE,19,0.0,0.0,96,0.00,,,0.00,0.00,VWS V14.01,2013-06-15 06:31:00,
2013-06-15 02:32:00,65.8,64.6,30.01,NNE,19,0.0,0.0,96,0.00,,,0.00,0.00,VWS V14.01,2013-06-15 06:32:00,
2013-06-15 02:33:00,65.8,64.6,30.01,NNE,19,0.0,0.0,96,0.00,,,0.00,0.00,VWS V14.01,2013-06-15 06:33:00,
2013-06-15 02:34:00,65.8,64.9,30.01,NNE,19,0.0,0.0,97,0.00,,,0.00,0.00,VWS V14.01,2013-06-15 06:34:00,
2013-06-15 02:35:00,65.8,64.9,30.01,NNE,19,0.0,0.0,97,0.00,,,0.00,0.00,VWS V14.01,2013-06-15 06:35:00,
2013-06-15 02:36:00,65.8,64.9,30.01,NNE,19,0.0,0.0,97,0.00,,,0.00,0.00,VWS V14.01,2013-06-15 06:36:00,
2013-06-15 02:37:00,65.8,64.9,30.01,NNE,19,0.0,0.0,97,0.00,,,0.00,0.00,VWS V14.01,2013-06-15 06:37:00,
2013-06-15 02:38:00,65.8,65.0,30.01,NNE,19,0.0,0.0,97,0.00,,,0.00,0.00,VWS V14.01,2013-06-15 06:38:00,
2013-06-15 02:39:00,65.8,65.0,30.01,NNE,19,0.0,0.0,97,0.00,,,0.00,0.00,VWS V14.01,2013-06-15 06:39:00,
2013-06-15 02:40:00,65.8,64.9,30.01,NNE,19,0.0,0.0,97,0.00,,,0.00,0.00,VWS V14.01,2013-06-15 06:40:00,
2013-06-15 02:41:00,65.8,64.9,30.01,NNE,19,0.0,1.1,97,0.00,,,0.00,0.00,VWS V14.01,2013-06-15 06:41:00,
2013-06-15 02:42:00,65.8,65.0,30.01,NNE,19,0.0,0.0,97,0.00,,,0.00,0.00,VWS V14.01,2013-06-15 06:42:00,
2013-06-15 02:43:00,65.8,65.0,30.01,NNE,19,0.0,0.0,97,0.00,,,0.00,0.00,VWS V14.01,2013-06-15 06:43:00,
2013-06-15 02:44:00,65.8,65.0,30.01,NNE,19,0.0,0.0,97,0.00,,,0.00,0.00,VWS V14.01,2013-06-15 06:44:00,
2013-06-15 02:45:00,65.8,64.9,30.01,NNE,19,0.0,0.0,97,0.00,,,0.00,0.00,VWS V14.01,2013-06-15 06:45:00,
2013-06-15 02:46:00,65.8,64.9,30.01,NNE,19,0.0,0.0,97,0.00,,,0.00,0.00,VWS V14.01,2013-06-15 06:46:00,
2013-06-15 02:47:00,65.8,64.9,30.01,NNE,19,0.0,0.0,97,0.00,,,0.00,0.00,VWS V14.01,2013-06-15 06:47:00,
2013-06-15 02:48:00,65.7,64.5,30.01,NNE,19,0.0,0.0,96,0.00,,,0.00,0.00,VWS V14.01,2013-06-15 06:48:00,
2013-06-15 02:49:00,65.7,64.5,30.01,NNE,19,0.0,0.0,96,0.00,,,0.00,0.00,VWS V14.01,2013-06-15 06:49:00,
2013-06-15 02:50:00,65.7,64.8,30.01,NNE,19,0.0,0.0,97,0.00,,,0.00,0.00,VWS V14.01,2013-06-15 06:50:00,
2013-06-15 02:51:00,65.7,64.8,30.01,NNE,19,0.0,0.0,97,0.00,,,0.00,0.00,VWS V14.01,2013-06-15 06:51:00,
2013-06-15 02:52:00,65.7,64.8,30.01,NNE,19,0.0,0.0,97,0.00,,,0.00,0.00,VWS V14.01,2013-06-15 06:52:00,
2013-06-15 02:53:00,65.7,64.8,30.01,NNE,19,0.0,0.0,97,0.00,,,0.00,0.00,VWS V14.01,2013-06-15 06:53:00,
2013-06-15 02:54:00,65.7,64.8,30.01,NNE,19,0.0,0.0,97,0.00,,,0.00,0.00,VWS V14.01,2013-06-15 06:54:00,
2013-06-15 02:55:00,65.7,64.8,30.01,NNE,19,0.0,0.0,97,0.00,,,0.00,0.00,VWS V14.01,2013-06-15 06:55:00,
2013-06-15 02:56:00,65.8,64.9,30.01,NNE,19,0.0,0.0,97,0.00,,,0.00,0.00,VWS V14.01,2013-06-15 06:56:00,
2013-06-15 02:57:00,65.8,64.9,30.01,NNE,19,0.0,0.0,97,0.00,,,0.00,0.00,VWS V14.01,2013-06-15 06:57:00,
2013-06-15 02:58:00,65.8,64.9,30.01,NNE,19,0.0,0.0,97,0.00,,,0.00,0.00,VWS V14.01,2013-06-15 06:58:00,
2013-06-15 02:59:00,65.8,64.9,30.01,NNE,19,0.0,0.0,97,0.00,,,0.00,0.00,VWS V14.01,2013-06-15 06:59:00,
2013-06-15 03:00:00,65.8,64.9,30.01,NNE,19,0.0,0.0,97,0.00,,,0.00,0.00,VWS V14.01,2013-06-15 07:00:00,
2013-06-15 03:01:00,65.8,64.9,30.01,NNE,19,0.0,0.0,97,0.00,,,0.00,0.00,VWS V14.01,2013-06-15 07:01:00,
2013-06-15 03:02:00,65.8,64.9,30.01,NNE,19,0.0,0.0,97,0.00,,,0.00,0.00,VWS V14.01,2013-06-15 07:02:00,
2013-06-15 03:03:00,65.8,64.9,30.01,NNE,19,0.0,0.0,97,0.00,,,0.00,0.00,VWS V14.01,2013-06-15 07:03:00,
2013-06-15 03:04:00,65.8,64.9,30.01,NNE,19,0.0,0.0,97,0.00,,,0.00,0.00,VWS V14.01,2013-06-15 07:04:00,
2013-06-15 03:05:00,65.7,64.8,30.01,NNE,19,0.0,0.0,97,0.00,,,0.00,0.00,VWS V14.01,2013-06-15 07:05:00,
2013-06-15 03:06:00,65.7,64.8,30.01,NNE,19,0.0,0.0,97,0.00,,,0.00,0.00,VWS V14.01,2013-06-15 07:06:00,
2013-06-15 03:07:00,65.7,64.8,30.01,NNE,19,0.0,0.0,97,0.00,,,0.00,0.00,VWS V14.01,2013-06-15 07:07:00,
2013-06-15 03:08:00,65.7,64.8,30.01,NNE,19,0.0,0.0,97,0.00,,,0.00,0.00,VWS V14.01,2013-06-15 07:08:00,
2013-06-15 03:09:00,65.8,64.9,30.01,NNE,19,0.0,0.0,97,0.00,,,0.00,0.00,VWS V14.01,2013-06-15 07:09:00,
2013-06-15 03:10:00,65.8,64.9,30.01,NNE,19,0.0,0.0,97,0.00,,,0.00,0.00,VWS V14.01,2013-06-15 07:10:00,
2013-06-15 03:11:00,65.8,64.9,30.01,NNE,19,0.0,0.0,97,0.00,,,0.00,0.00,VWS V14.01,2013-06-15 07:11:00,
2013-06-15 03:12:00,65.7,64.8,30.01,NNE,19,0.0,0.0,97,0.00,,,0.00,0.00,VWS V14.01,2013-06-15 07:12:00,
2013-06-15 03:13:00,65.7,64.8,30.01,NNE,19,0.0,0.0,97,0.00,,,0.00,0.00,VWS V14.01,2013-06-15 07:13:00,
2013-06-15 03:14:00,65.6,64.7,30.01,NNE,19,0.0,0.0,97,0.00,,,0.00,0.00,VWS V14.01,2013-06-15 07:14:00,
2013-06-15 03:15:00,65.6,64.7,30.01,NNE,19,0.0,0.0,97,0.00,,,0.00,0.00,VWS V14.01,2013-06-15 07:15:00,
2013-06-15 03:16:00,65.6,64.7,30.01,NNE,19,0.0,0.0,97,0.00,,,0.00,0.00,VWS V14.01,2013-06-15 07:16:00,
2013-06-15 03:17:00,65.6,64.7,30.01,NNE,19,0.0,0.0,97,0.00,,,0.00,0.00,VWS V14.01,2013-06-15 07:17:00,
2013-06-15 03:18:00,65.4,64.6,30.01,NNE,19,0.0,0.0,97,0.00,,,0.00,0.00,VWS V14.01,2013-06-15 07:18:00,
2013-06-15 03:19:00,65.4,64.6,30.01,NNE,19,0.0,0.0,97,0.00,,,0.00,0.00,VWS V14.01,2013-06-15 07:19:00,
2013-06-15 03:20:00,65.3,64.5,30.01,NNE,19,0.0,0.0,97,0.00,,,0.00,0.00,VWS V14.01,2013-06-15 07:20:00,
2013-06-15 03:21:00,65.3,64.5,30.01,NNE,19,0.0,0.0,97,0.00,,,0.00,0.00,VWS V14.01,2013-06-15 07:21:00,
2013-06-15 03:22:00,65.2,64.4,30.01,NNE,19,0.0,0.0,97,0.00,,,0.00,0.00,VWS V14.01,2013-06-15 07:22:00,
2013-06-15 03:23:00,65.2,64.4,30.01,NNE,19,0.0,0.0,97,0.00,,,0.00,0.00,VWS V14.01,2013-06-15 07:23:00,
2013-06-15 03:24:00,65.2,64.4,30.01,NNE,19,0.0,0.0,97,0.00,,,0.00,0.00,VWS V14.01,2013-06-15 07:24:00,
2013-06-15 03:25:00,65.2,64.4,30.01,NNE,19,0.0,0.0,97,0.00,,,0.00,0.00,VWS V14.01,2013-06-15 07:25:00,
2013-06-15 03:26:00,65.2,64.4,30.01,NNE,19,0.0,0.0,97,0.00,,,0.00,0.00,VWS V14.01,2013-06-15 07:26:00,
2013-06-15 03:27:00,65.2,64.4,30.01,NNE,19,0.0,0.0,97,0.00,,,0.00,0.00,VWS V14.01,2013-06-15 07:27:00,
2013-06-15 03:28:00,65.2,64.4,30.01,NNE,19,0.0,0.0,97,0.00,,,0.00,0.00,VWS V14.01,2013-06-15 07:28:00,
2013-06-15 03:29:00,65.2,64.4,30.01,NNE,19,0.0,0.0,97,0.00,,,0.00,0.00,VWS V14.01,2013-06-15 07:29:00,
2013-06-15 03:30:00,65.2,64.3,30.01,NNE,19,0.0,0.0,97,0.00,,,0.00,0.00,VWS V14.01,2013-06-15 07:30:00,
2013-06-15 03:31:00,65.2,64.3,30.01,NNE,19,0.0,0.0,97,0.00,,,0.00,0.00,VWS V14.01,2013-06-15 07:31:00,
2013-06-15 03:32:00,65.2,64.3,30.01,NNE,19,0.0,0.0,97,0.00,,,0.00,0.00,VWS V14.01,2013-06-15 07:32:00,
2013-06-15 03:33:00,65.1,64.2,30.01,NNE,19,0.0,0.0,97,0.00,,,0.00,0.00,VWS V14.01,2013-06-15 07:33:00,
2013-06-15 03:34:00,65.1,64.2,30.00,NNE,19,0.0,0.0,97,0.00,,,0.00,0.00,VWS V14.01,2013-06-15 07:34:00,
2013-06-15 03:35:00,65.1,64.2,30.00,NNE,19,0.0,0.0,97,0.00,,,0.00,0.00,VWS V14.01,2013-06-15 07:35:00,
2013-06-15 03:36:00,65.1,64.2,30.00,NNE,19,0.0,0.0,97,0.00,,,0.00,0.00,VWS V14.01,2013-06-15 07:36:00,
2013-06-15 03:37:00,65.1,64.2,30.01,NNE,19,0.0,0.0,97,0.00,,,0.00,0.00,VWS V14.01,2013-06-15 07:37:00,
2013-06-15 03:38:00,65.1,64.2,30.00,NNE,19,0.0,0.0,97,0.00,,,0.00,0.00,VWS V14.01,2013-06-15 07:38:00,
2013-06-15 03:39:00,65.1,64.2,30.00,NNE,19,0.0,0.0,97,0.00,,,0.00,0.00,VWS V14.01,2013-06-15 07:39:00,
2013-06-15 03:40:00,65.1,64.2,30.01,NNE,19,0.0,0.0,97,0.00,,,0.00,0.00,VWS V14.01,2013-06-15 07:40:00,
2013-06-15 03:41:00,65.1,64.2,30.01,NNE,19,0.0,0.0,97,0.00,,,0.00,0.00,VWS V14.01,2013-06-15 07:41:00,
2013-06-15 03:42:00,65.1,64.2,30.01,NNE,19,0.0,0.0,97,0.00,,,0.00,0.00,VWS V14.01,2013-06-15 07:42:00,
2013-06-15 03:43:00,65.1,64.2,30.01,NNE,19,0.0,0.0,97,0.00,,,0.00,0.00,VWS V14.01,2013-06-15 07:43:00,
2013-06-15 03:44:00,65.1,64.2,30.01,NNE,19,0.0,0.0,97,0.00,,,0.00,0.00,VWS V14.01,2013-06-15 07:44:00,
2013-06-15 03:45:00,65.2,64.3,30.01,NNE,19,0.0,0.0,97,0.00,,,0.00,0.00,VWS V14.01,2013-06-15 07:45:00,
2013-06-15 03:46:00,65.2,64.3,30.01,NNE,19,0.0,0.0,97,0.00,,,0.00,0.00,VWS V14.01,2013-06-15 07:46:00,
2013-06-15 03:47:00,65.2,64.3,30.01,NNE,19,0.0,0.0,97,0.00,,,0.00,0.00,VWS V14.01,2013-06-15 07:47:00,
2013-06-15 03:48:00,65.1,64.2,30.01,NNE,19,0.0,0.0,97,0.00,,,0.00,0.00,VWS V14.01,2013-06-15 07:48:00,
2013-06-15 03:49:00,65.1,64.2,30.01,NNE,19,0.0,0.0,97,0.00,,,0.00,0.00,VWS V14.01,2013-06-15 07:49:00,
2013-06-15 03:50:00,64.9,64.1,30.01,NNE,19,0.0,0.0,97,0.00,,,0.00,0.00,VWS V14.01,2013-06-15 07:50:00,
2013-06-15 03:51:00,64.9,64.1,30.01,NNE,19,0.0,0.0,97,0.00,,,0.00,0.00,VWS V14.01,2013-06-15 07:51:00,
2013-06-15 03:52:00,64.8,64.0,30.01,NNE,19,0.0,0.0,97,0.00,,,0.00,0.00,VWS V14.01,2013-06-15 07:52:00,
2013-06-15 03:53:00,64.8,64.0,30.01,NNE,19,0.0,0.0,97,0.00,,,0.00,0.00,VWS V14.01,2013-06-15 07:53:00,
2013-06-15 03:54:00,64.8,63.9,30.01,NNE,19,0.0,0.0,97,0.00,,,0.00,0.00,VWS V14.01,2013-06-15 07:54:00,
2013-06-15 03:55:00,64.8,63.9,30.01,NNE,19,0.0,0.0,97,0.00,,,0.00,0.00,VWS V14.01,2013-06-15 07:55:00,
2013-06-15 03:56:00,64.8,63.9,30.01,NNE,19,0.0,0.0,97,0.00,,,0.00,0.00,VWS V14.01,2013-06-15 07:56:00,
2013-06-15 03:57:00,64.8,63.9,30.01,NNE,19,0.0,0.0,97,0.00,,,0.00,0.00,VWS V14.01,2013-06-15 07:57:00,
2013-06-15 03:58:00,64.8,63.9,30.01,NNE,19,0.0,0.0,97,0.00,,,0.00,0.00,VWS V14.01,2013-06-15 07:58:00,
2013-06-15 03:59:00,64.8,63.9,30.01,NNE,19,0.0,0.0,97,0.00,,,0.00,0.00,VWS V14.01,2013-06-15 07:59:00,
2013-06-15 04:00:00,64.8,64.0,30.01,NNE,19,0.0,0.0,97,0.00,,,0.00,0.00,VWS V14.01,2013-06-15 08:00:00,
2013-06-15 04:01:00,64.8,63.9,30.01,NNE,19,0.0,0.0,97,0.00,,,0.00,0.00,VWS V14.01,2013-06-15 08:01:00,
2013-06-15 04:02:00,64.8,64.0,30.01,NNE,19,0.0,0.0,97,0.00,,,0.00,0.00,VWS V14.01,2013-06-15 08:02:00,
2013-06-15 04:03:00,64.8,64.0,30.01,NNE,19,0.0,0.0,97,0.00,,,0.00,0.00,VWS V14.01,2013-06-15 08:03:00,
2013-06-15 04:04:00,64.8,64.0,30.01,NNE,19,0.0,0.0,97,0.00,,,0.00,0.00,VWS V14.01,2013-06-15 08:04:00,
2013-06-15 04:05:00,64.9,64.1,30.01,NNE,19,0.0,0.0,97,0.00,,,0.00,0.00,VWS V14.01,2013-06-15 08:05:00,
2013-06-15 04:06:00,64.9,64.1,30.01,NNE,19,0.0,0.0,97,0.00,,,0.00,0.00,VWS V14.01,2013-06-15 08:06:00,
2013-06-15 04:07:00,64.9,64.1,30.01,NNE,19,0.0,0.0,97,0.00,,,0.00,0.00,VWS V14.01,2013-06-15 08:07:00,
2013-06-15 04:08:00,64.9,64.1,30.01,NNE,19,0.0,0.0,97,0.00,,,0.00,0.00,VWS V14.01,2013-06-15 08:08:00,
2013-06-15 04:09:00,64.9,64.1,30.01,NNE,19,0.0,0.0,97,0.00,,,0.00,0.00,VWS V14.01,2013-06-15 08:09:00,
2013-06-15 04:10:00,64.8,64.0,30.01,NNE,19,0.0,0.0,97,0.00,,,0.00,0.00,VWS V14.01,2013-06-15 08:10:00,
2013-06-15 04:11:00,64.8,64.0,30.01,NNE,19,0.0,0.0,97,0.00,,,0.00,0.00,VWS V14.01,2013-06-15 08:11:00,
2013-06-15 04:12:00,64.8,63.9,30.01,NNE,19,0.0,0.0,97,0.00,,,0.00,0.00,VWS V14.01,2013-06-15 08:12:00,
2013-06-15 04:13:00,64.7,63.8,30.01,NNE,19,0.0,0.0,97,0.00,,,0.00,0.00,VWS V14.01,2013-06-15 08:13:00,
2013-06-15 04:14:00,64.7,63.8,30.01,NNE,19,0.0,0.0,97,0.00,,,0.00,0.00,VWS V14.01,2013-06-15 08:14:00,
2013-06-15 04:15:00,64.8,63.9,30.01,NNE,19,0.0,0.0,97,0.00,,,0.00,0.00,VWS V14.01,2013-06-15 08:15:00,
2013-06-15 04:16:00,64.7,63.8,30.01,NNE,19,0.0,0.0,97,0.00,,,0.00,0.00,VWS V14.01,2013-06-15 08:16:00,
2013-06-15 04:17:00,64.7,63.8,30.01,NNE,19,0.0,0.0,97,0.00,,,0.00,0.00,VWS V14.01,2013-06-15 08:17:00,
2013-06-15 04:18:00,64.8,63.9,30.01,NNE,19,0.0,0.0,97,0.00,,,0.00,0.00,VWS V14.01,2013-06-15 08:18:00,
2013-06-15 04:19:00,64.8,63.9,30.01,NNE,19,0.0,0.0,97,0.00,,,0.00,0.00,VWS V14.01,2013-06-15 08:19:00,
2013-06-15 04:20:00,64.8,64.0,30.01,NNE,19,0.0,0.0,97,0.00,,,0.00,0.00,VWS V14.01,2013-06-15 08:20:00,
2013-06-15 04:21:00,64.8,64.0,30.01,NNE,19,0.0,0.0,97,0.00,,,0.00,0.00,VWS V14.01,2013-06-15 08:21:00,
2013-06-15 04:22:00,64.8,63.9,30.01,NNE,19,0.0,0.0,97,0.00,,,0.00,0.00,VWS V14.01,2013-06-15 08:22:00,
2013-06-15 04:23:00,64.8,63.9,30.01,NNE,19,0.0,0.0,97,0.00,,,0.00,0.00,VWS V14.01,2013-06-15 08:23:00,
2013-06-15 04:24:00,64.8,63.9,30.01,NNE,19,0.0,0.0,97,0.00,,,0.00,0.00,VWS V14.01,2013-06-15 08:24:00,
2013-06-15 04:25:00,64.8,63.9,30.01,NNE,19,0.0,0.0,97,0.00,,,0.00,0.00,VWS V14.01,2013-06-15 08:25:00,
2013-06-15 04:26:00,64.8,63.9,30.01,NNE,19,0.0,0.0,97,0.00,,,0.00,0.00,VWS V14.01,2013-06-15 08:26:00,
2013-06-15 04:27:00,64.8,63.9,30.01,NNE,19,0.0,0.0,97,0.00,,,0.00,0.00,VWS V14.01,2013-06-15 08:27:00,
2013-06-15 04:28:00,64.7,63.8,30.01,NNE,19,0.0,0.0,97,0.00,,,0.00,0.00,VWS V14.01,2013-06-15 08:28:00,
2013-06-15 04:29:00,64.7,63.8,30.01,NNE,19,0.0,0.0,97,0.00,,,0.00,0.00,VWS V14.01,2013-06-15 08:29:00,
2013-06-15 04:30:00,64.6,63.7,30.01,NNE,19,0.0,0.0,97,0.00,,,0.00,0.00,VWS V14.01,2013-06-15 08:30:00,
2013-06-15 04:31:00,64.6,63.7,30.01,NNE,19,0.0,0.0,97,0.00,,,0.00,0.00,VWS V14.01,2013-06-15 08:31:00,
2013-06-15 04:32:00,64.6,63.7,30.01,NNE,19,0.0,0.0,97,0.00,,,0.00,0.00,VWS V14.01,2013-06-15 08:32:00,
2013-06-15 04:33:00,64.6,63.7,30.01,NNE,19,0.0,0.0,97,0.00,,,0.00,0.00,VWS V14.01,2013-06-15 08:33:00,
2013-06-15 04:34:00,64.6,63.7,30.01,NNE,19,0.0,0.0,97,0.00,,,0.00,0.00,VWS V14.01,2013-06-15 08:34:00,
2013-06-15 04:35:00,64.7,63.8,30.01,NNE,19,0.0,0.0,97,0.00,,,0.00,0.00,VWS V14.01,2013-06-15 08:35:00,
2013-06-15 04:36:00,64.7,63.8,30.01,NNE,19,0.0,0.0,97,0.00,,,0.00,0.00,VWS V14.01,2013-06-15 08:36:00,
2013-06-15 04:37:00,64.7,63.8,30.01,NNE,19,0.0,0.0,97,0.00,,,0.00,0.00,VWS V14.01,2013-06-15 08:37:00,
2013-06-15 04:38:00,64.7,63.8,30.01,NNE,19,0.0,0.0,97,0.00,,,0.00,0.00,VWS V14.01,2013-06-15 08:38:00,
2013-06-15 04:39:00,64.8,63.9,30.01,NNE,19,0.0,0.0,97,0.00,,,0.00,0.00,VWS V14.01,2013-06-15 08:39:00,
2013-06-15 04:40:00,64.8,63.9,30.01,NNE,19,0.0,0.0,97,0.00,,,0.00,0.00,VWS V14.01,2013-06-15 08:40:00,
2013-06-15 04:41:00,64.8,63.9,30.01,NNE,19,0.0,0.0,97,0.00,,,0.00,0.00,VWS V14.01,2013-06-15 08:41:00,
2013-06-15 04:42:00,64.8,63.9,30.01,NNE,19,0.0,0.0,97,0.00,,,0.00,0.00,VWS V14.01,2013-06-15 08:42:00,
2013-06-15 04:43:00,64.8,63.9,30.01,NNE,19,0.0,0.0,97,0.00,,,0.00,0.00,VWS V14.01,2013-06-15 08:43:00,
2013-06-15 04:44:00,64.7,63.8,30.01,NNE,19,0.0,0.0,97,0.00,,,0.00,0.00,VWS V14.01,2013-06-15 08:44:00,
2013-06-15 04:45:00,64.7,63.8,30.01,NNE,19,0.0,0.0,97,0.00,,,0.00,0.00,VWS V14.01,2013-06-15 08:45:00,
2013-06-15 04:46:00,64.7,63.8,30.01,NNE,19,0.0,0.0,97,0.00,,,0.00,0.00,VWS V14.01,2013-06-15 08:46:00,
2013-06-15 04:47:00,64.7,63.8,30.01,NNE,19,0.0,0.0,97,0.00,,,0.00,0.00,VWS V14.01,2013-06-15 08:47:00,
2013-06-15 04:48:00,64.7,63.8,30.01,NNE,19,0.0,1.1,97,0.00,,,0.00,0.00,VWS V14.01,2013-06-15 08:48:00,
2013-06-15 04:49:00,64.7,63.8,30.01,NNE,19,0.0,1.1,97,0.00,,,0.00,0.00,VWS V14.01,2013-06-15 08:49:00,
2013-06-15 04:50:00,64.8,63.9,30.01,NNE,19,1.1,1.1,97,0.00,,,0.00,0.00,VWS V14.01,2013-06-15 08:50:00,
2013-06-15 04:51:00,64.8,63.9,30.01,NNE,19,0.0,1.1,97,0.00,,,0.00,0.00,VWS V14.01,2013-06-15 08:51:00,
2013-06-15 04:52:00,64.8,63.9,30.01,NNE,19,0.0,0.0,97,0.00,,,0.00,0.00,VWS V14.01,2013-06-15 08:52:00,
2013-06-15 04:53:00,64.8,63.9,30.01,NNE,19,0.0,0.0,97,0.00,,,0.00,0.00,VWS V14.01,2013-06-15 08:53:00,
2013-06-15 04:54:00,64.8,63.9,30.01,NNE,19,0.0,0.0,97,0.00,,,0.00,0.00,VWS V14.01,2013-06-15 08:54:00,
2013-06-15 04:55:00,64.8,63.9,30.01,NNE,19,0.0,0.0,97,0.00,,,0.00,0.00,VWS V14.01,2013-06-15 08:55:00,
2013-06-15 04:56:00,64.8,63.9,30.01,NNE,19,0.0,0.0,97,0.00,,,0.00,0.00,VWS V14.01,2013-06-15 08:56:00,
2013-06-15 04:57:00,64.8,63.9,30.01,NNE,19,0.0,0.0,97,0.00,,,0.00,0.00,VWS V14.01,2013-06-15 08:57:00,
2013-06-15 04:58:00,64.8,63.9,30.01,NNE,19,0.0,0.0,97,0.00,,,0.00,0.00,VWS V14.01,2013-06-15 08:58:00,
2013-06-15 04:59:00,64.8,63.9,30.01,NNE,19,0.0,1.1,97,0.00,,,0.00,0.00,VWS V14.01,2013-06-15 08:59:00,
2013-06-15 05:00:00,64.8,63.9,30.01,NNE,19,0.0,0.0,97,0.00,,,0.00,0.00,VWS V14.01,2013-06-15 09:00:00,
2013-06-15 05:01:00,64.8,63.9,30.01,NNE,19,0.0,0.0,97,0.00,,,0.00,0.00,VWS V14.01,2013-06-15 09:01:00,
2013-06-15 05:02:00,64.7,63.8,30.01,North,353,3.3,3.3,97,0.00,,,0.00,0.00,VWS V14.01,2013-06-15 09:02:00,
2013-06-15 05:03:00,64.7,63.8,30.01,North,353,0.0,3.3,97,0.00,,,0.00,0.00,VWS V14.01,2013-06-15 09:03:00,
2013-06-15 05:04:00,64.7,63.8,30.01,North,353,0.0,0.0,97,0.00,,,0.00,0.00,VWS V14.01,2013-06-15 09:04:00,
2013-06-15 05:05:00,64.7,63.8,30.01,North,353,0.0,1.1,97,0.00,,,0.00,0.00,VWS V14.01,2013-06-15 09:05:00,
2013-06-15 05:06:00,64.7,63.8,30.01,North,353,0.0,1.1,97,0.00,,,0.00,0.00,VWS V14.01,2013-06-15 09:06:00,
2013-06-15 05:07:00,64.7,63.8,30.01,North,353,0.0,0.0,97,0.00,,,0.00,0.00,VWS V14.01,2013-06-15 09:07:00,
2013-06-15 05:08:00,64.7,63.8,30.01,North,353,0.0,1.1,97,0.00,,,0.00,0.00,VWS V14.01,2013-06-15 09:08:00,
2013-06-15 05:09:00,64.7,63.8,30.01,North,353,0.0,0.0,97,0.00,,,0.00,0.00,VWS V14.01,2013-06-15 09:09:00,
2013-06-15 05:10:00,64.7,63.8,30.01,North,353,0.0,0.0,97,0.00,,,0.00,0.00,VWS V14.01,2013-06-15 09:10:00,
2013-06-15 05:11:00,64.7,63.8,30.01,North,353,0.0,0.0,97,0.00,,,0.00,0.00,VWS V14.01,2013-06-15 09:11:00,
2013-06-15 05:12:00,64.7,63.8,30.01,North,353,0.0,0.0,97,0.00,,,0.00,0.00,VWS V14.01,2013-06-15 09:12:00,
2013-06-15 05:13:00,64.8,63.9,30.01,North,353,0.0,0.0,97,0.00,,,0.00,0.00,VWS V14.01,2013-06-15 09:13:00,
2013-06-15 05:14:00,64.7,63.8,30.01,North,353,0.0,0.0,97,0.00,,,0.00,0.00,VWS V14.01,2013-06-15 09:14:00,
2013-06-15 05:15:00,64.8,63.9,30.01,North,353,0.0,0.0,97,0.00,,,0.00,0.00,VWS V14.01,2013-06-15 09:15:00,
2013-06-15 05:16:00,64.8,63.9,30.01,North,353,0.0,0.0,97,0.00,,,0.00,0.00,VWS V14.01,2013-06-15 09:16:00,
2013-06-15 05:17:00,64.8,63.9,30.01,North,353,0.0,0.0,97,0.00,,,0.00,0.00,VWS V14.01,2013-06-15 09:17:00,
2013-06-15 05:18:00,64.8,63.9,30.01,North,353,0.0,0.0,97,0.00,,,0.00,0.00,VWS V14.01,2013-06-15 09:18:00,
2013-06-15 05:19:00,64.8,63.9,30.01,North,353,0.0,0.0,97,0.00,,,0.00,0.00,VWS V14.01,2013-06-15 09:19:00,
2013-06-15 05:20:00,64.8,64.0,30.01,North,353,0.0,0.0,97,0.00,,,0.00,0.00,VWS V14.01,2013-06-15 09:20:00,
2013-06-15 05:21:00,64.8,64.0,30.01,North,353,0.0,0.0,97,0.00,,,0.00,0.00,VWS V14.01,2013-06-15 09:21:00,
2013-06-15 05:22:00,64.8,64.0,30.01,North,353,0.0,0.0,97,0.00,,,0.00,0.00,VWS V14.01,2013-06-15 09:22:00,
2013-06-15 05:23:00,64.8,63.9,30.01,North,353,0.0,0.0,97,0.00,,,0.00,0.00,VWS V14.01,2013-06-15 09:23:00,
2013-06-15 05:24:00,64.8,63.9,30.01,North,353,0.0,0.0,97,0.00,,,0.00,0.00,VWS V14.01,2013-06-15 09:24:00,
2013-06-15 05:25:00,64.8,64.0,30.01,North,353,0.0,0.0,97,0.00,,,0.00,0.00,VWS V14.01,2013-06-15 09:25:00,
2013-06-15 05:26:00,64.8,64.0,30.01,North,353,0.0,0.0,97,0.00,,,0.00,0.00,VWS V14.01,2013-06-15 09:26:00,
2013-06-15 05:27:00,64.8,64.0,30.01,North,353,0.0,0.0,97,0.00,,,0.00,0.00,VWS V14.01,2013-06-15 09:27:00,
2013-06-15 05:28:00,64.8,64.0,30.01,North,353,0.0,0.0,97,0.00,,,0.00,0.00,VWS V14.01,2013-06-15 09:28:00,
2013-06-15 05:29:00,64.8,63.9,30.02,North,353,0.0,0.0,97,0.00,,,0.00,0.00,VWS V14.01,2013-06-15 09:29:00,
2013-06-15 05:30:00,64.8,63.9,30.01,North,353,0.0,0.0,97,0.00,,,0.00,0.00,VWS V14.01,2013-06-15 09:30:00,
2013-06-15 05:31:00,64.7,63.8,30.01,North,353,0.0,0.0,97,0.00,,,0.00,0.00,VWS V14.01,2013-06-15 09:31:00,
2013-06-15 05:32:00,64.7,63.8,30.01,North,353,0.0,0.0,97,0.00,,,0.00,0.00,VWS V14.01,2013-06-15 09:32:00,
2013-06-15 05:33:00,64.7,63.8,30.02,North,353,0.0,0.0,97,0.00,,,0.00,0.00,VWS V14.01,2013-06-15 09:33:00,
2013-06-15 05:34:00,64.7,63.8,30.01,North,353,0.0,0.0,97,0.00,,,0.00,0.00,VWS V14.01,2013-06-15 09:34:00,
2013-06-15 05:35:00,64.6,63.7,30.01,North,353,0.0,0.0,97,0.00,,,0.00,0.00,VWS V14.01,2013-06-15 09:35:00,
2013-06-15 05:36:00,64.6,63.7,30.01,North,353,0.0,0.0,97,0.00,,,0.00,0.00,VWS V14.01,2013-06-15 09:36:00,
2013-06-15 05:37:00,64.4,63.6,30.01,North,353,0.0,0.0,97,0.00,,,0.00,0.00,VWS V14.01,2013-06-15 09:37:00,
2013-06-15 05:38:00,64.4,63.6,30.01,North,353,0.0,0.0,97,0.00,,,0.00,0.00,VWS V14.01,2013-06-15 09:38:00,
2013-06-15 05:39:00,64.3,63.5,30.01,North,353,0.0,0.0,97,0.00,,,0.00,0.00,VWS V14.01,2013-06-15 09:39:00,
2013-06-15 05:40:00,64.2,63.4,30.01,North,353,0.0,0.0,97,0.00,,,0.00,0.00,VWS V14.01,2013-06-15 09:40:00,
2013-06-15 05:41:00,64.2,63.4,30.01,North,353,0.0,0.0,97,0.00,,,0.00,0.00,VWS V14.01,2013-06-15 09:41:00,
2013-06-15 05:42:00,64.3,63.5,30.01,North,353,0.0,0.0,97,0.00,,,0.00,0.00,VWS V14.01,2013-06-15 09:42:00,
2013-06-15 05:43:00,64.3,63.5,30.01,North,353,1.1,1.1,97,0.00,,,0.00,0.00,VWS V14.01,2013-06-15 09:43:00,
2013-06-15 05:44:00,64.3,63.5,30.01,North,358,0.0,1.1,97,0.00,,,0.00,0.00,VWS V14.01,2013-06-15 09:44:00,
2013-06-15 05:45:00,64.3,63.5,30.01,North,358,1.1,1.1,97,0.00,,,0.00,0.00,VWS V14.01,2013-06-15 09:45:00,
2013-06-15 05:46:00,64.3,63.5,30.01,North,358,0.0,1.1,97,0.00,,,0.00,0.00,VWS V14.01,2013-06-15 09:46:00,
2013-06-15 05:47:00,64.3,63.5,30.01,North,358,0.0,0.0,97,0.00,,,0.00,0.00,VWS V14.01,2013-06-15 09:47:00,
2013-06-15 05:48:00,64.3,63.5,30.01,North,358,0.0,0.0,97,0.00,,,0.00,0.00,VWS V14.01,2013-06-15 09:48:00,
2013-06-15 05:49:00,64.3,63.5,30.02,North,358,0.0,0.0,97,0.00,,,0.00,0.00,VWS V14.01,2013-06-15 09:49:00,
2013-06-15 05:50:00,64.4,63.6,30.02,North,358,0.0,0.0,97,0.00,,,0.00,0.00,VWS V14.01,2013-06-15 09:50:00,
2013-06-15 05:51:00,64.3,63.5,30.02,North,358,0.0,0.0,97,0.00,,,0.00,0.00,VWS V14.01,2013-06-15 09:51:00,
2013-06-15 05:52:00,64.4,63.6,30.02,North,358,0.0,0.0,97,0.00,,,0.00,0.00,VWS V14.01,2013-06-15 09:52:00,
2013-06-15 05:53:00,64.4,63.6,30.02,North,358,0.0,0.0,97,0.00,,,0.00,0.00,VWS V14.01,2013-06-15 09:53:00,
2013-06-15 05:54:00,64.4,63.6,30.02,North,358,0.0,0.0,97,0.00,,,0.00,0.00,VWS V14.01,2013-06-15 09:54:00,
2013-06-15 05:55:00,64.4,63.6,30.02,North,358,0.0,0.0,97,0.00,,,0.00,0.00,VWS V14.01,2013-06-15 09:55:00,
2013-06-15 05:56:00,64.6,63.7,30.02,North,358,0.0,0.0,97,0.00,,,0.00,0.00,VWS V14.01,2013-06-15 09:56:00,
2013-06-15 05:57:00,64.6,63.7,30.02,North,358,0.0,0.0,97,0.00,,,0.00,0.00,VWS V14.01,2013-06-15 09:57:00,
2013-06-15 05:58:00,64.6,63.7,30.02,North,358,0.0,0.0,97,0.00,,,0.00,0.00,VWS V14.01,2013-06-15 09:58:00,
2013-06-15 05:59:00,64.7,63.8,30.02,North,358,0.0,0.0,97,0.00,,,0.00,0.00,VWS V14.01,2013-06-15 09:59:00,
2013-06-15 06:00:00,64.7,63.8,30.02,North,358,0.0,0.0,97,0.00,,,0.00,0.00,VWS V14.01,2013-06-15 10:00:00,
2013-06-15 06:01:00,64.7,63.8,30.02,North,358,0.0,0.0,97,0.00,,,0.00,0.00,VWS V14.01,2013-06-15 10:01:00,
2013-06-15 06:02:00,64.7,63.8,30.02,North,358,0.0,0.0,97,0.00,,,0.00,0.00,VWS V14.01,2013-06-15 10:02:00,
2013-06-15 06:03:00,64.6,63.7,30.02,North,358,0.0,0.0,97,0.00,,,0.00,0.00,VWS V14.01,2013-06-15 10:03:00,
2013-06-15 06:04:00,64.4,63.6,30.02,North,358,0.0,0.0,97,0.00,,,0.00,0.00,VWS V14.01,2013-06-15 10:04:00,
2013-06-15 06:05:00,64.4,63.6,30.02,North,358,0.0,0.0,97,0.00,,,0.00,0.00,VWS V14.01,2013-06-15 10:05:00,
2013-06-15 06:06:00,64.4,63.6,30.02,North,358,0.0,0.0,97,0.00,,,0.00,0.00,VWS V14.01,2013-06-15 10:06:00,
2013-06-15 06:07:00,64.4,63.6,30.02,North,358,0.0,0.0,97,0.00,,,0.00,0.00,VWS V14.01,2013-06-15 10:07:00,
2013-06-15 06:08:00,64.4,63.6,30.02,North,358,0.0,0.0,97,0.00,,,0.00,0.00,VWS V14.01,2013-06-15 10:08:00,
2013-06-15 06:09:00,64.4,63.6,30.02,North,358,0.0,0.0,97,0.00,,,0.00,0.00,VWS V14.01,2013-06-15 10:09:00,
2013-06-15 06:10:00,64.3,63.5,30.02,North,358,0.0,0.0,97,0.00,,,0.00,0.00,VWS V14.01,2013-06-15 10:10:00,
2013-06-15 06:11:00,64.3,63.5,30.02,North,358,0.0,0.0,97,0.00,,,0.00,0.00,VWS V14.01,2013-06-15 10:11:00,
2013-06-15 06:12:00,64.2,63.4,30.02,North,358,0.0,0.0,97,0.00,,,0.00,0.00,VWS V14.01,2013-06-15 10:12:00,
2013-06-15 06:13:00,64.2,63.4,30.02,North,358,0.0,0.0,97,0.00,,,0.00,0.00,VWS V14.01,2013-06-15 10:13:00,
2013-06-15 06:14:00,64.2,63.4,30.02,North,358,0.0,0.0,97,0.00,,,0.00,0.00,VWS V14.01,2013-06-15 10:14:00,
2013-06-15 06:15:00,64.2,63.3,30.02,North,358,0.0,0.0,97,0.00,,,0.00,0.00,VWS V14.01,2013-06-15 10:15:00,
2013-06-15 06:16:00,64.2,63.3,30.02,North,358,0.0,0.0,97,0.00,,,0.00,0.00,VWS V14.01,2013-06-15 10:16:00,
2013-06-15 06:17:00,64.2,63.3,30.02,North,358,0.0,0.0,97,0.00,,,0.00,0.00,VWS V14.01,2013-06-15 10:17:00,
2013-06-15 06:18:00,64.2,63.3,30.02,North,358,0.0,0.0,97,0.00,,,0.00,0.00,VWS V14.01,2013-06-15 10:18:00,
2013-06-15 06:19:00,64.2,63.3,30.02,North,358,0.0,0.0,97,0.00,,,0.00,5.00,VWS V14.01,2013-06-15 10:19:00,
2013-06-15 06:20:00,64.2,63.3,30.03,North,358,0.0,0.0,97,0.00,,,0.00,5.00,VWS V14.01,2013-06-15 10:20:00,
2013-06-15 06:21:00,64.2,63.3,30.03,North,358,0.0,0.0,97,0.00,,,0.00,5.00,VWS V14.01,2013-06-15 10:21:00,
2013-06-15 06:22:00,64.2,63.6,30.02,North,358,0.0,0.0,98,0.00,,,0.00,5.00,VWS V14.01,2013-06-15 10:22:00,
2013-06-15 06:23:00,64.2,63.3,30.03,North,358,0.0,0.0,97,0.00,,,0.00,5.00,VWS V14.01,2013-06-15 10:23:00,
2013-06-15 06:24:00,64.2,63.6,30.03,North,358,0.0,0.0,98,0.00,,,0.00,5.00,VWS V14.01,2013-06-15 10:24:00,
2013-06-15 06:25:00,64.2,63.7,30.03,North,358,0.0,0.0,98,0.00,,,0.00,7.00,VWS V14.01,2013-06-15 10:25:00,
2013-06-15 06:26:00,64.2,63.7,30.03,North,358,0.0,0.0,98,0.00,,,0.00,7.00,VWS V14.01,2013-06-15 10:26:00,
2013-06-15 06:27:00,64.2,63.7,30.03,North,358,0.0,0.0,98,0.00,,,0.00,7.00,VWS V14.01,2013-06-15 10:27:00,
2013-06-15 06:28:00,64.3,63.8,30.03,North,358,0.0,0.0,98,0.00,,,0.00,7.00,VWS V14.01,2013-06-15 10:28:00,
2013-06-15 06:29:00,64.3,63.8,30.03,North,358,0.0,0.0,98,0.00,,,0.00,7.00,VWS V14.01,2013-06-15 10:29:00,
2013-06-15 06:30:00,64.2,63.7,30.03,North,358,0.0,0.0,98,0.00,,,0.00,7.00,VWS V14.01,2013-06-15 10:30:00,
2013-06-15 06:31:00,64.2,63.7,30.03,North,358,0.0,0.0,98,0.00,,,0.00,7.00,VWS V14.01,2013-06-15 10:31:00,
2013-06-15 06:32:00,64.2,63.7,30.03,North,358,0.0,0.0,98,0.00,,,0.00,9.00,VWS V14.01,2013-06-15 10:32:00,
2013-06-15 06:33:00,64.2,63.7,30.03,North,358,0.0,0.0,98,0.00,,,0.00,9.00,VWS V14.01,2013-06-15 10:33:00,
2013-06-15 06:34:00,64.2,63.7,30.03,North,358,0.0,0.0,98,0.00,,,0.00,9.00,VWS V14.01,2013-06-15 10:34:00,
2013-06-15 06:35:00,64.2,63.7,30.03,North,358,0.0,0.0,98,0.00,,,0.00,9.00,VWS V14.01,2013-06-15 10:35:00,
2013-06-15 06:36:00,64.2,63.7,30.03,North,358,0.0,0.0,98,0.00,,,0.00,9.00,VWS V14.01,2013-06-15 10:36:00,
2013-06-15 06:37:00,64.2,63.7,30.03,North,358,0.0,0.0,98,0.00,,,0.00,9.00,VWS V14.01,2013-06-15 10:37:00,
2013-06-15 06:38:00,64.2,63.7,30.03,North,358,0.0,0.0,98,0.00,,,0.00,9.00,VWS V14.01,2013-06-15 10:38:00,
2013-06-15 06:39:00,64.2,63.7,30.04,North,358,0.0,0.0,98,0.00,,,0.00,11.00,VWS V14.01,2013-06-15 10:39:00,
2013-06-15 06:40:00,64.2,63.7,30.04,North,358,0.0,0.0,98,0.00,,,0.00,11.00,VWS V14.01,2013-06-15 10:40:00,
2013-06-15 06:41:00,64.2,63.7,30.04,North,358,0.0,0.0,98,0.00,,,0.00,11.00,VWS V14.01,2013-06-15 10:41:00,
2013-06-15 06:42:00,64.3,63.8,30.04,North,358,0.0,0.0,98,0.00,,,0.00,11.00,VWS V14.01,2013-06-15 10:42:00,
2013-06-15 06:43:00,64.3,63.8,30.04,North,358,0.0,0.0,98,0.00,,,0.00,11.00,VWS V14.01,2013-06-15 10:43:00,
2013-06-15 06:44:00,64.3,63.8,30.04,North,358,0.0,0.0,98,0.00,,,0.00,11.00,VWS V14.01,2013-06-15 10:44:00,
2013-06-15 06:45:00,64.3,63.8,30.04,North,358,0.0,0.0,98,0.00,,,0.00,12.00,VWS V14.01,2013-06-15 10:45:00,
2013-06-15 06:46:00,64.4,63.9,30.04,North,358,0.0,0.0,98,0.00,,,0.00,12.00,VWS V14.01,2013-06-15 10:46:00,
2013-06-15 06:47:00,64.4,63.9,30.04,North,358,0.0,0.0,98,0.00,,,0.00,12.00,VWS V14.01,2013-06-15 10:47:00,
2013-06-15 06:48:00,64.4,63.9,30.04,North,358,0.0,0.0,98,0.00,,,0.00,12.00,VWS V14.01,2013-06-15 10:48:00,
2013-06-15 06:49:00,64.3,63.8,30.04,North,358,0.0,0.0,98,0.00,,,0.00,12.00,VWS V14.01,2013-06-15 10:49:00,
2013-06-15 06:50:00,64.4,63.9,30.04,North,358,0.0,0.0,98,0.00,,,0.00,14.00,VWS V14.01,2013-06-15 10:50:00,
2013-06-15 06:51:00,64.4,63.9,30.04,North,358,0.0,0.0,98,0.00,,,0.00,14.00,VWS V14.01,2013-06-15 10:51:00,
2013-06-15 06:52:00,64.4,63.9,30.04,North,358,0.0,0.0,98,0.00,,,0.00,14.00,VWS V14.01,2013-06-15 10:52:00,
2013-06-15 06:53:00,64.4,63.9,30.04,North,358,0.0,0.0,98,0.00,,,0.00,14.00,VWS V14.01,2013-06-15 10:53:00,
2013-06-15 06:54:00,64.6,64.0,30.04,North,358,0.0,0.0,98,0.00,,,0.00,14.00,VWS V14.01,2013-06-15 10:54:00,
2013-06-15 06:55:00,64.7,64.1,30.04,North,358,0.0,0.0,98,0.00,,,0.00,14.00,VWS V14.01,2013-06-15 10:55:00,
2013-06-15 06:56:00,64.7,64.1,30.04,North,358,0.0,0.0,98,0.00,,,0.00,14.00,VWS V14.01,2013-06-15 10:56:00,
2013-06-15 06:57:00,64.7,64.1,30.04,North,358,0.0,0.0,98,0.00,,,0.00,14.00,VWS V14.01,2013-06-15 10:57:00,
2013-06-15 06:58:00,64.7,64.1,30.04,North,358,0.0,0.0,98,0.00,,,0.00,16.00,VWS V14.01,2013-06-15 10:58:00,
2013-06-15 06:59:00,64.7,64.1,30.04,North,358,0.0,0.0,98,0.00,,,0.00,16.00,VWS V14.01,2013-06-15 10:59:00,
2013-06-15 07:00:00,64.8,64.2,30.04,North,358,0.0,0.0,98,0.00,,,0.00,16.00,VWS V14.01,2013-06-15 11:00:00,
2013-06-15 07:01:00,64.8,64.2,30.04,North,358,0.0,0.0,98,0.00,,,0.00,16.00,VWS V14.01,2013-06-15 11:01:00,
2013-06-15 07:02:00,64.8,64.2,30.04,North,358,0.0,0.0,98,0.00,,,0.00,16.00,VWS V14.01,2013-06-15 11:02:00,
2013-06-15 07:03:00,64.8,64.3,30.04,North,358,0.0,0.0,98,0.00,,,0.00,16.00,VWS V14.01,2013-06-15 11:03:00,
2013-06-15 07:04:00,64.8,64.3,30.04,North,358,0.0,0.0,98,0.00,,,0.00,16.00,VWS V14.01,2013-06-15 11:04:00,
2013-06-15 07:05:00,64.9,64.4,30.04,North,358,0.0,0.0,98,0.00,,,0.00,18.00,VWS V14.01,2013-06-15 11:05:00,
2013-06-15 07:06:00,64.9,64.4,30.04,North,358,0.0,0.0,98,0.00,,,0.00,18.00,VWS V14.01,2013-06-15 11:06:00,
2013-06-15 07:07:00,64.9,64.4,30.04,North,358,0.0,0.0,98,0.00,,,0.00,18.00,VWS V14.01,2013-06-15 11:07:00,
2013-06-15 07:08:00,64.9,64.4,30.04,North,358,0.0,0.0,98,0.00,,,0.00,18.00,VWS V14.01,2013-06-15 11:08:00,
2013-06-15 07:09:00,65.1,64.5,30.04,North,358,0.0,0.0,98,0.00,,,0.00,18.00,VWS V14.01,2013-06-15 11:09:00,
2013-06-15 07:10:00,65.1,64.5,30.04,North,358,0.0,0.0,98,0.00,,,0.00,18.00,VWS V14.01,2013-06-15 11:10:00,
2013-06-15 07:11:00,65.1,64.5,30.04,North,358,0.0,0.0,98,0.00,,,0.00,18.00,VWS V14.01,2013-06-15 11:11:00,
2013-06-15 07:12:00,65.1,64.5,30.04,North,358,0.0,0.0,98,0.00,,,0.00,18.00,VWS V14.01,2013-06-15 11:12:00,
2013-06-15 07:13:00,65.2,64.6,30.04,North,358,0.0,0.0,98,0.00,,,0.00,18.00,VWS V14.01,2013-06-15 11:13:00,
2013-06-15 07:14:00,65.2,64.6,30.04,North,358,0.0,0.0,98,0.00,,,0.00,18.00,VWS V14.01,2013-06-15 11:14:00,
2013-06-15 07:15:00,65.2,64.7,30.04,North,358,0.0,0.0,98,0.00,,,0.00,19.00,VWS V14.01,2013-06-15 11:15:00,
2013-06-15 07:16:00,65.2,64.7,30.04,North,358,0.0,0.0,98,0.00,,,0.00,19.00,VWS V14.01,2013-06-15 11:16:00,
2013-06-15 07:17:00,65.3,64.8,30.04,North,358,0.0,0.0,98,0.00,,,0.00,19.00,VWS V14.01,2013-06-15 11:17:00,
2013-06-15 07:18:00,65.3,64.8,30.04,North,358,0.0,0.0,98,0.00,,,0.00,19.00,VWS V14.01,2013-06-15 11:18:00,
2013-06-15 07:19:00,65.3,64.8,30.04,North,358,0.0,0.0,98,0.00,,,0.00,19.00,VWS V14.01,2013-06-15 11:19:00,
2013-06-15 07:20:00,65.4,64.9,30.04,North,358,0.0,0.0,98,0.00,,,0.00,19.00,VWS V14.01,2013-06-15 11:20:00,
2013-06-15 07:21:00,65.4,64.9,30.04,North,358,0.0,0.0,98,0.00,,,0.00,19.00,VWS V14.01,2013-06-15 11:21:00,
2013-06-15 07:22:00,65.4,64.9,30.05,North,358,0.0,0.0,98,0.00,,,0.00,19.00,VWS V14.01,2013-06-15 11:22:00,
2013-06-15 07:23:00,65.6,65.0,30.05,North,358,0.0,0.0,98,0.00,,,0.00,21.00,VWS V14.01,2013-06-15 11:23:00,
2013-06-15 07:24:00,65.6,65.0,30.05,North,358,0.0,0.0,98,0.00,,,0.00,21.00,VWS V14.01,2013-06-15 11:24:00,
2013-06-15 07:25:00,65.8,65.2,30.05,North,358,0.0,0.0,98,0.00,,,0.00,21.00,VWS V14.01,2013-06-15 11:25:00,
2013-06-15 07:26:00,65.8,65.2,30.05,North,358,0.0,0.0,98,0.00,,,0.00,21.00,VWS V14.01,2013-06-15 11:26:00,
2013-06-15 07:27:00,65.8,65.3,30.05,North,358,0.0,0.0,98,0.00,,,0.00,21.00,VWS V14.01,2013-06-15 11:27:00,
2013-06-15 07:28:00,65.8,65.3,30.05,North,358,0.0,0.0,98,0.00,,,0.00,21.00,VWS V14.01,2013-06-15 11:28:00,
2013-06-15 07:29:00,65.9,65.4,30.05,North,358,0.0,0.0,98,0.00,,,0.00,21.00,VWS V14.01,2013-06-15 11:29:00,
2013-06-15 07:30:00,66.1,65.5,30.05,North,358,0.0,0.0,98,0.00,,,0.00,21.00,VWS V14.01,2013-06-15 11:30:00,
2013-06-15 07:31:00,66.2,65.6,30.05,North,358,0.0,0.0,98,0.00,,,0.00,21.00,VWS V14.01,2013-06-15 11:31:00,
2013-06-15 07:32:00,66.2,65.6,30.05,North,358,0.0,0.0,98,0.00,,,0.00,21.00,VWS V14.01,2013-06-15 11:32:00,
2013-06-15 07:33:00,66.2,65.6,30.05,North,358,0.0,0.0,98,0.00,,,0.00,23.00,VWS V14.01,2013-06-15 11:33:00,
2013-06-15 07:34:00,66.2,65.7,30.06,North,358,0.0,0.0,98,0.00,,,0.00,23.00,VWS V14.01,2013-06-15 11:34:00,
2013-06-15 07:35:00,66.3,65.8,30.06,North,358,0.0,0.0,98,0.00,,,0.00,23.00,VWS V14.01,2013-06-15 11:35:00,
2013-06-15 07:36:00,66.4,65.9,30.06,North,358,0.0,0.0,98,0.00,,,0.00,23.00,VWS V14.01,2013-06-15 11:36:00,
2013-06-15 07:37:00,66.4,65.9,30.06,North,358,0.0,0.0,98,0.00,,,0.00,23.00,VWS V14.01,2013-06-15 11:37:00,
2013-06-15 07:38:00,66.7,66.1,30.06,North,358,0.0,0.0,98,0.00,,,0.00,23.00,VWS V14.01,2013-06-15 11:38:00,
2013-06-15 07:39:00,66.8,66.2,30.06,North,358,0.0,0.0,98,0.00,,,0.00,23.00,VWS V14.01,2013-06-15 11:39:00,
2013-06-15 07:40:00,66.8,66.3,30.06,North,358,0.0,0.0,98,0.00,,,0.00,23.00,VWS V14.01,2013-06-15 11:40:00,
2013-06-15 07:41:00,66.8,66.3,30.06,North,358,0.0,0.0,98,0.00,,,0.00,25.00,VWS V14.01,2013-06-15 11:41:00,
2013-06-15 07:42:00,66.9,66.4,30.06,North,358,0.0,0.0,98,0.00,,,0.00,25.00,VWS V14.01,2013-06-15 11:42:00,
2013-06-15 07:43:00,67.1,66.5,30.06,North,358,0.0,0.0,98,0.00,,,0.00,25.00,VWS V14.01,2013-06-15 11:43:00,
2013-06-15 07:44:00,67.1,66.5,30.06,North,358,0.0,0.0,98,0.00,,,0.00,25.00,VWS V14.01,2013-06-15 11:44:00,
2013-06-15 07:45:00,67.2,66.6,30.06,North,358,0.0,0.0,98,0.00,,,0.00,25.00,VWS V14.01,2013-06-15 11:45:00,
2013-06-15 07:46:00,67.2,66.6,30.06,North,358,0.0,0.0,98,0.00,,,0.00,25.00,VWS V14.01,2013-06-15 11:46:00,
2013-06-15 07:47:00,67.2,66.7,30.07,North,358,0.0,0.0,98,0.00,,,0.00,25.00,VWS V14.01,2013-06-15 11:47:00,
2013-06-15 07:48:00,67.3,66.8,30.07,North,358,0.0,0.0,98,0.00,,,0.00,25.00,VWS V14.01,2013-06-15 11:48:00,
2013-06-15 07:49:00,67.4,66.9,30.07,North,358,0.0,0.0,98,0.00,,,0.00,25.00,VWS V14.01,2013-06-15 11:49:00,
2013-06-15 07:50:00,67.7,67.1,30.07,North,358,0.0,0.0,98,0.00,,,0.00,26.00,VWS V14.01,2013-06-15 11:50:00,
2013-06-15 07:51:00,67.7,67.1,30.07,North,358,0.0,0.0,98,0.00,,,0.00,26.00,VWS V14.01,2013-06-15 11:51:00,
2013-06-15 07:52:00,67.8,67.2,30.07,North,358,0.0,0.0,98,0.00,,,0.00,26.00,VWS V14.01,2013-06-15 11:52:00,
2013-06-15 07:53:00,67.8,67.2,30.07,North,358,0.0,0.0,98,0.00,,,0.00,26.00,VWS V14.01,2013-06-15 11:53:00,
2013-06-15 07:54:00,67.8,67.3,30.07,North,358,0.0,0.0,98,0.00,,,0.00,26.00,VWS V14.01,2013-06-15 11:54:00,
2013-06-15 07:55:00,67.9,67.4,30.07,North,358,0.0,0.0,98,0.00,,,0.00,26.00,VWS V14.01,2013-06-15 11:55:00,
2013-06-15 07:56:00,67.9,67.4,30.07,North,358,0.0,0.0,98,0.00,,,0.00,26.00,VWS V14.01,2013-06-15 11:56:00,
2013-06-15 07:57:00,68.1,67.5,30.07,North,358,0.0,0.0,98,0.00,,,0.00,26.00,VWS V14.01,2013-06-15 11:57:00,
2013-06-15 07:58:00,68.2,67.6,30.07,North,358,0.0,0.0,98,0.00,,,0.00,28.00,VWS V14.01,2013-06-15 11:58:00,
2013-06-15 07:59:00,68.2,67.7,30.07,North,358,0.0,0.0,98,0.00,,,0.00,28.00,VWS V14.01,2013-06-15 11:59:00,
2013-06-15 08:00:00,68.4,67.9,30.08,North,358,0.0,0.0,98,0.00,,,0.00,28.00,VWS V14.01,2013-06-15 12:00:00,
2013-06-15 08:01:00,68.4,67.9,30.08,North,358,0.0,0.0,98,0.00,,,0.00,28.00,VWS V14.01,2013-06-15 12:01:00,
2013-06-15 08:02:00,68.6,68.0,30.07,North,358,0.0,0.0,98,0.00,,,0.00,28.00,VWS V14.01,2013-06-15 12:02:00,
2013-06-15 08:03:00,68.7,68.1,30.08,North,358,0.0,0.0,98,0.00,,,0.00,28.00,VWS V14.01,2013-06-15 12:03:00,
2013-06-15 08:04:00,68.8,68.2,30.08,North,358,0.0,0.0,98,0.00,,,0.00,28.00,VWS V14.01,2013-06-15 12:04:00,
2013-06-15 08:05:00,68.8,68.0,30.08,North,358,0.0,0.0,97,0.00,,,0.00,28.00,VWS V14.01,2013-06-15 12:05:00,
2013-06-15 08:06:00,68.8,68.0,30.08,North,358,0.0,0.0,97,0.00,,,0.00,28.00,VWS V14.01,2013-06-15 12:06:00,
2013-06-15 08:07:00,68.9,68.1,30.08,North,358,0.0,0.0,97,0.00,,,0.00,28.00,VWS V14.01,2013-06-15 12:07:00,
2013-06-15 08:08:00,69.1,68.2,30.08,North,358,0.0,0.0,97,0.00,,,0.00,28.00,VWS V14.01,2013-06-15 12:08:00,
2013-06-15 08:09:00,69.2,68.3,30.08,North,358,0.0,0.0,97,0.00,,,0.00,28.00,VWS V14.01,2013-06-15 12:09:00,
2013-06-15 08:10:00,69.3,68.5,30.08,North,358,0.0,0.0,97,0.00,,,0.00,30.00,VWS V14.01,2013-06-15 12:10:00,
2013-06-15 08:11:00,69.3,68.5,30.08,North,358,0.0,0.0,97,0.00,,,0.00,30.00,VWS V14.01,2013-06-15 12:11:00,
2013-06-15 08:12:00,69.4,68.6,30.08,North,358,0.0,0.0,97,0.00,,,0.00,30.00,VWS V14.01,2013-06-15 12:12:00,
2013-06-15 08:13:00,69.7,68.8,30.08,North,358,0.0,0.0,97,0.00,,,0.00,30.00,VWS V14.01,2013-06-15 12:13:00,
2013-06-15 08:14:00,69.8,68.9,30.08,North,358,0.0,0.0,97,0.00,,,0.00,30.00,VWS V14.01,2013-06-15 12:14:00,
2013-06-15 08:15:00,69.8,68.9,30.08,North,358,0.0,0.0,97,0.00,,,0.00,30.00,VWS V14.01,2013-06-15 12:15:00,
2013-06-15 08:16:00,69.8,69.0,30.08,North,358,0.0,0.0,97,0.00,,,0.00,30.00,VWS V14.01,2013-06-15 12:16:00,
2013-06-15 08:17:00,69.9,69.1,30.08,North,358,1.1,1.1,97,0.00,,,0.00,30.00,VWS V14.01,2013-06-15 12:17:00,
2013-06-15 08:18:00,70.1,69.2,30.09,North,358,0.0,1.1,97,0.00,,,0.00,32.00,VWS V14.01,2013-06-15 12:18:00,
2013-06-15 08:19:00,70.2,69.0,30.08,North,358,0.0,0.0,96,0.00,,,0.00,32.00,VWS V14.01,2013-06-15 12:19:00,
2013-06-15 08:20:00,70.3,69.2,30.08,North,358,0.0,1.1,96,0.00,,,0.00,30.00,VWS V14.01,2013-06-15 12:20:00,
2013-06-15 08:21:00,70.3,69.2,30.08,North,358,0.0,1.1,96,0.00,,,0.00,30.00,VWS V14.01,2013-06-15 12:21:00,
2013-06-15 08:22:00,70.6,69.4,30.08,North,358,0.0,1.1,96,0.00,,,0.00,30.00,VWS V14.01,2013-06-15 12:22:00,
2013-06-15 08:23:00,70.7,69.5,30.08,North,358,0.0,0.0,96,0.00,,,0.00,30.00,VWS V14.01,2013-06-15 12:23:00,
2013-06-15 08:24:00,70.8,69.2,30.08,North,358,0.0,0.0,95,0.00,,,0.00,32.00,VWS V14.01,2013-06-15 12:24:00,
2013-06-15 08:25:00,70.8,69.3,30.08,North,358,0.0,0.0,95,0.00,,,0.00,32.00,VWS V14.01,2013-06-15 12:25:00,
2013-06-15 08:26:00,70.9,69.4,30.08,North,358,0.0,0.0,95,0.00,,,0.00,32.00,VWS V14.01,2013-06-15 12:26:00,
2013-06-15 08:27:00,71.1,69.6,30.08,North,358,0.0,0.0,95,0.00,,,0.00,32.00,VWS V14.01,2013-06-15 12:27:00,
2013-06-15 08:28:00,71.2,69.7,30.08,North,358,0.0,1.1,95,0.00,,,0.00,32.00,VWS V14.01,2013-06-15 12:28:00,
2013-06-15 08:29:00,71.3,69.5,30.09,North,358,0.0,0.0,94,0.00,,,0.00,32.00,VWS V14.01,2013-06-15 12:29:00,
2013-06-15 08:30:00,71.6,69.7,30.09,North,358,0.0,1.1,94,0.00,,,0.00,32.00,VWS V14.01,2013-06-15 12:30:00,
2013-06-15 08:31:00,71.6,69.7,30.09,North,358,0.0,1.1,94,0.00,,,0.00,32.00,VWS V14.01,2013-06-15 12:31:00,
2013-06-15 08:32:00,71.8,69.6,30.09,North,358,0.0,0.0,93,0.00,,,0.00,32.00,VWS V14.01,2013-06-15 12:32:00,
2013-06-15 08:33:00,71.8,69.7,30.09,North,358,0.0,1.1,93,0.00,,,0.00,32.00,VWS V14.01,2013-06-15 12:33:00,
2013-06-15 08:34:00,71.9,69.5,30.09,North,358,0.0,1.1,92,0.00,,,0.00,32.00,VWS V14.01,2013-06-15 12:34:00,
2013-06-15 08:35:00,72.1,69.3,30.09,North,358,0.0,0.0,91,0.00,,,0.00,33.00,VWS V14.01,2013-06-15 12:35:00,
2013-06-15 08:36:00,72.2,69.4,30.09,North,358,1.1,1.1,91,0.00,,,0.00,33.00,VWS V14.01,2013-06-15 12:36:00,
2013-06-15 08:37:00,72.2,69.2,30.09,North,358,0.0,1.1,90,0.00,,,0.00,33.00,VWS V14.01,2013-06-15 12:37:00,
2013-06-15 08:38:00,72.4,69.4,30.09,North,358,0.0,1.1,90,0.00,,,0.00,33.00,VWS V14.01,2013-06-15 12:38:00,
2013-06-15 08:39:00,72.6,69.1,30.09,North,358,0.0,3.3,89,0.00,,,0.00,33.00,VWS V14.01,2013-06-15 12:39:00,
2013-06-15 08:40:00,72.9,69.5,30.09,North,358,0.0,0.0,89,0.00,,,0.00,35.00,VWS V14.01,2013-06-15 12:40:00,
2013-06-15 08:41:00,72.9,69.5,30.09,North,358,0.0,0.0,89,0.00,,,0.00,35.00,VWS V14.01,2013-06-15 12:41:00,
2013-06-15 08:42:00,73.2,69.7,30.09,North,358,0.0,1.1,89,0.00,,,0.00,35.00,VWS V14.01,2013-06-15 12:42:00,
2013-06-15 08:43:00,73.3,69.6,30.09,North,358,0.0,0.0,88,0.00,,,0.00,33.00,VWS V14.01,2013-06-15 12:43:00,
2013-06-15 08:44:00,73.4,69.3,30.09,North,358,0.0,0.0,87,0.00,,,0.00,33.00,VWS V14.01,2013-06-15 12:44:00,
2013-06-15 08:45:00,73.7,69.6,30.09,North,358,0.0,0.0,87,0.00,,,0.00,33.00,VWS V14.01,2013-06-15 12:45:00,
2013-06-15 08:46:00,73.7,69.6,30.09,North,358,1.1,1.1,87,0.00,,,0.00,33.00,VWS V14.01,2013-06-15 12:46:00,
2013-06-15 08:47:00,73.8,69.7,30.09,North,358,0.0,1.1,87,0.00,,,0.00,33.00,VWS V14.01,2013-06-15 12:47:00,
2013-06-15 08:48:00,73.9,69.5,30.10,North,358,0.0,0.0,86,0.00,,,0.00,33.00,VWS V14.01,2013-06-15 12:48:00,
2013-06-15 08:49:00,74.1,69.6,30.10,North,358,0.0,0.0,86,0.00,,,0.00,35.00,VWS V14.01,2013-06-15 12:49:00,
2013-06-15 08:50:00,74.2,69.8,30.10,North,358,0.0,2.2,86,0.00,,,0.00,35.00,VWS V14.01,2013-06-15 12:50:00,
2013-06-15 08:51:00,74.3,69.9,30.10,North,358,0.0,2.2,86,0.00,,,0.00,35.00,VWS V14.01,2013-06-15 12:51:00,
2013-06-15 08:52:00,74.4,70.0,30.10,North,358,0.0,0.0,86,0.00,,,0.00,35.00,VWS V14.01,2013-06-15 12:52:00,
2013-06-15 08:53:00,74.6,69.8,30.10,North,358,0.0,0.0,85,0.00,,,0.00,35.00,VWS V14.01,2013-06-15 12:53:00,
2013-06-15 08:54:00,74.7,69.5,30.10,North,358,0.0,0.0,84,0.00,,,0.00,35.00,VWS V14.01,2013-06-15 12:54:00,
2013-06-15 08:55:00,74.8,69.7,30.09,North,358,0.0,0.0,84,0.00,,,0.00,35.00,VWS V14.01,2013-06-15 12:55:00,
2013-06-15 08:56:00,74.9,69.8,30.09,North,358,0.0,0.0,84,0.00,,,0.00,35.00,VWS V14.01,2013-06-15 12:56:00,
2013-06-15 08:57:00,75.1,69.2,30.09,North,358,0.0,0.0,82,0.00,,,0.00,35.00,VWS V14.01,2013-06-15 12:57:00,
2013-06-15 08:58:00,75.2,68.6,30.09,North,358,0.0,0.0,80,0.00,,,0.00,35.00,VWS V14.01,2013-06-15 12:58:00,
2013-06-15 08:59:00,75.2,69.0,30.09,North,358,0.0,0.0,81,0.00,,,0.00,35.00,VWS V14.01,2013-06-15 12:59:00,
2013-06-15 09:00:00,75.3,69.1,30.09,North,358,0.0,0.0,81,0.00,,,0.00,39.00,VWS V14.01,2013-06-15 13:00:00,
2013-06-15 09:01:00,75.3,69.1,30.09,North,358,0.0,0.0,81,0.00,,,0.00,39.00,VWS V14.01,2013-06-15 13:01:00,
2013-06-15 09:02:00,75.4,69.2,30.09,North,358,0.0,3.3,81,0.00,,,0.00,39.00,VWS V14.01,2013-06-15 13:02:00,
2013-06-15 09:03:00,75.6,68.9,30.09,North,358,0.0,0.0,80,0.00,,,0.00,40.00,VWS V14.01,2013-06-15 13:03:00,
2013-06-15 09:04:00,75.7,69.8,30.09,North,358,0.0,0.0,82,0.00,,,0.00,47.00,VWS V14.01,2013-06-15 13:04:00,
2013-06-15 09:05:00,75.8,69.9,30.10,North,358,0.0,0.0,82,0.00,,,0.00,37.00,VWS V14.01,2013-06-15 13:05:00,
2013-06-15 09:06:00,75.8,70.2,30.10,North,358,0.0,0.0,83,0.00,,,0.00,37.00,VWS V14.01,2013-06-15 13:06:00,
2013-06-15 09:07:00,75.8,70.2,30.10,North,358,0.0,0.0,83,0.00,,,0.00,47.00,VWS V14.01,2013-06-15 13:07:00,
2013-06-15 09:08:00,75.8,69.5,30.10,North,358,0.0,0.0,81,0.00,,,0.00,47.00,VWS V14.01,2013-06-15 13:08:00,
2013-06-15 09:10:00,76.1,69.4,30.10,North,358,0.0,0.0,80,0.00,,,0.00,58.00,VWS V14.01,2013-06-15 13:10:00,
2013-06-15 09:11:00,76.1,69.1,30.10,North,358,0.0,0.0,79,0.00,,,0.00,58.00,VWS V14.01,2013-06-15 13:11:00,
2013-06-15 09:12:00,76.2,69.5,30.10,North,358,0.0,1.1,80,0.00,,,0.00,47.00,VWS V14.01,2013-06-15 13:12:00,
2013-06-15 09:13:00,76.3,69.4,30.10,North,358,0.0,0.0,79,0.00,,,0.00,40.00,VWS V14.01,2013-06-15 13:13:00,
2013-06-15 09:14:00,76.4,69.8,30.10,North,358,0.0,0.0,80,0.00,,,0.00,46.00,VWS V14.01,2013-06-15 13:14:00,
2013-06-15 09:15:00,76.6,69.2,30.10,SSE,156,2.2,3.3,78,0.00,,,0.00,46.00,VWS V14.01,2013-06-15 13:15:00,
2013-06-15 09:16:00,76.6,69.2,30.10,SSE,156,0.0,3.3,78,0.00,,,0.00,46.00,VWS V14.01,2013-06-15 13:16:00,
2013-06-15 09:17:00,76.6,68.8,30.10,SSE,156,0.0,0.0,77,0.00,,,0.00,54.00,VWS V14.01,2013-06-15 13:17:00,
2013-06-15 09:18:00,76.7,68.9,30.10,SSE,168,0.0,1.1,77,0.00,,,0.00,60.00,VWS V14.01,2013-06-15 13:18:00,
2013-06-15 09:19:00,76.8,69.0,30.10,North,10,1.1,4.4,77,0.00,,,0.00,40.00,VWS V14.01,2013-06-15 13:19:00,
2013-06-15 09:20:00,76.8,68.7,30.10,WNW,282,0.0,1.1,76,0.00,,,0.00,40.00,VWS V14.01,2013-06-15 13:20:00,
2013-06-15 09:21:00,76.9,68.8,30.10,WSW,240,1.1,1.1,76,0.00,,,0.00,40.00,VWS V14.01,2013-06-15 13:21:00,
2013-06-15 09:22:00,76.9,68.8,30.10,WSW,240,0.0,1.1,76,0.00,,,0.00,40.00,VWS V14.01,2013-06-15 13:22:00,
2013-06-15 09:23:00,77.1,69.3,30.10,North,10,1.1,2.2,77,0.00,,,0.00,40.00,VWS V14.01,2013-06-15 13:23:00,
2013-06-15 09:24:00,77.1,69.3,30.10,North,10,0.0,1.1,77,0.00,,,0.00,40.00,VWS V14.01,2013-06-15 13:24:00,
2013-06-15 09:25:00,77.1,68.5,30.10,North,10,0.0,1.1,75,0.00,,,0.00,40.00,VWS V14.01,2013-06-15 13:25:00,
2013-06-15 09:26:00,77.1,68.5,30.10,North,10,0.0,1.1,75,0.00,,,0.00,40.00,VWS V14.01,2013-06-15 13:26:00,
2013-06-15 09:27:00,77.2,69.0,30.10,North,10,0.0,0.0,76,0.00,,,0.00,40.00,VWS V14.01,2013-06-15 13:27:00,
2013-06-15 09:28:00,77.2,68.2,30.10,North,10,0.0,1.1,74,0.00,,,0.00,40.00,VWS V14.01,2013-06-15 13:28:00,
2013-06-15 09:29:00,77.2,68.3,30.10,North,10,0.0,0.0,74,0.00,,,0.00,40.00,VWS V14.01,2013-06-15 13:29:00,
2013-06-15 09:30:00,77.3,68.8,30.10,North,358,2.2,2.2,75,0.00,,,0.00,40.00,VWS V14.01,2013-06-15 13:30:00,
2013-06-15 09:31:00,77.3,68.8,30.10,North,358,1.1,2.2,75,0.00,,,0.00,40.00,VWS V14.01,2013-06-15 13:31:00,
2013-06-15 09:32:00,77.4,68.5,30.10,North,358,1.1,1.1,74,0.00,,,0.00,42.00,VWS V14.01,2013-06-15 13:32:00,
2013-06-15 09:33:00,77.4,68.9,30.10,North,358,0.0,1.1,75,0.00,,,0.00,42.00,VWS V14.01,2013-06-15 13:33:00,
2013-06-15 09:34:00,77.4,68.1,30.10,North,358,0.0,0.0,73,0.00,,,0.00,42.00,VWS V14.01,2013-06-15 13:34:00,
2013-06-15 09:35:00,77.4,67.7,30.10,SE,146,1.1,5.5,72,0.00,,,0.00,42.00,VWS V14.01,2013-06-15 13:35:00,
2013-06-15 09:36:00,77.4,67.7,30.10,SE,146,0.0,5.5,72,0.00,,,0.00,42.00,VWS V14.01,2013-06-15 13:36:00,
2013-06-15 09:37:00,77.6,67.4,30.10,SE,144,1.1,1.1,71,0.00,,,0.00,42.00,VWS V14.01,2013-06-15 13:37:00,
2013-06-15 09:38:00,77.7,67.5,30.10,SE,144,1.1,2.2,71,0.00,,,0.00,42.00,VWS V14.01,2013-06-15 13:38:00,
2013-06-15 09:39:00,77.8,68.5,30.10,SE,124,0.0,1.1,73,0.00,,,0.00,42.00,VWS V14.01,2013-06-15 13:39:00,
2013-06-15 09:40:00,77.9,68.2,30.10,SSE,152,2.2,5.5,72,0.00,,,0.00,42.00,VWS V14.01,2013-06-15 13:40:00,
2013-06-15 09:41:00,78.1,68.7,30.10,SSE,151,0.0,5.5,73,0.00,,,0.00,42.00,VWS V14.01,2013-06-15 13:41:00,
2013-06-15 09:42:00,78.1,67.9,30.10,East,91,0.0,1.1,71,0.00,,,0.00,42.00,VWS V14.01,2013-06-15 13:42:00,
2013-06-15 09:43:00,78.1,67.9,30.10,East,90,0.0,0.0,71,0.00,,,0.00,42.00,VWS V14.01,2013-06-15 13:43:00,
2013-06-15 09:44:00,78.1,67.9,30.10,East,90,0.0,1.1,71,0.00,,,0.00,42.00,VWS V14.01,2013-06-15 13:44:00,
2013-06-15 09:45:00,78.1,67.5,30.10,East,85,0.0,0.0,70,0.00,,,0.00,42.00,VWS V14.01,2013-06-15 13:45:00,
2013-06-15 09:46:00,78.2,68.4,30.10,ESE,115,1.1,1.1,72,0.00,,,0.00,42.00,VWS V14.01,2013-06-15 13:46:00,
2013-06-15 09:47:00,78.2,68.4,30.10,ESE,115,0.0,1.1,72,0.00,,,0.00,44.00,VWS V14.01,2013-06-15 13:47:00,
2013-06-15 09:48:00,78.2,68.0,30.10,SE,126,2.2,2.2,71,0.00,,,0.00,44.00,VWS V14.01,2013-06-15 13:48:00,
2013-06-15 09:49:00,78.3,68.2,30.10,SE,132,1.1,2.2,71,0.00,,,0.00,44.00,VWS V14.01,2013-06-15 13:49:00,
2013-06-15 09:50:00,78.4,67.4,30.10,SE,132,0.0,0.0,69,0.00,,,0.00,44.00,VWS V14.01,2013-06-15 13:50:00,
2013-06-15 09:51:00,78.4,67.4,30.10,SE,132,0.0,0.0,69,0.00,,,0.00,44.00,VWS V14.01,2013-06-15 13:51:00,
2013-06-15 09:52:00,78.4,67.0,30.10,SE,132,0.0,0.0,68,0.00,,,0.00,44.00,VWS V14.01,2013-06-15 13:52:00,
2013-06-15 09:53:00,78.6,68.0,30.10,East,81,1.1,1.1,70,0.00,,,0.00,44.00,VWS V14.01,2013-06-15 13:53:00,
2013-06-15 09:54:00,78.6,67.5,30.10,SSE,165,1.1,1.1,69,0.00,,,0.00,46.00,VWS V14.01,2013-06-15 13:54:00,
2013-06-15 09:55:00,78.7,68.1,30.10,SSE,165,0.0,0.0,70,0.00,,,0.00,46.00,VWS V14.01,2013-06-15 13:55:00,
2013-06-15 09:56:00,78.7,68.1,30.10,SSE,165,0.0,0.0,70,0.00,,,0.00,46.00,VWS V14.01,2013-06-15 13:56:00,
2013-06-15 09:57:00,78.8,68.2,30.10,SSE,165,0.0,0.0,70,0.00,,,0.00,46.00,VWS V14.01,2013-06-15 13:57:00,
2013-06-15 09:58:00,78.8,68.2,30.10,SSE,165,1.1,1.1,70,0.00,,,0.00,46.00,VWS V14.01,2013-06-15 13:58:00,
2013-06-15 09:59:00,78.8,69.1,30.10,SSE,165,0.0,1.1,72,0.00,,,0.00,46.00,VWS V14.01,2013-06-15 13:59:00,
2013-06-15 10:00:00,78.8,68.2,30.10,NNE,21,1.1,2.2,70,0.00,,,0.00,46.00,VWS V14.01,2013-06-15 14:00:00,
2013-06-15 10:01:00,78.8,68.2,30.10,NNE,21,1.1,2.2,70,0.00,,,0.00,47.00,VWS V14.01,2013-06-15 14:01:00,
2013-06-15 10:02:00,78.8,69.0,30.10,NNE,21,0.0,1.1,72,0.00,,,0.00,47.00,VWS V14.01,2013-06-15 14:02:00,
2013-06-15 10:03:00,78.7,67.6,30.10,NNE,21,0.0,0.0,69,0.00,,,0.00,47.00,VWS V14.01,2013-06-15 14:03:00,
2013-06-15 10:04:00,78.7,66.8,30.10,SE,133,0.0,0.0,67,0.00,,,0.00,47.00,VWS V14.01,2013-06-15 14:04:00,
2013-06-15 10:05:00,78.8,66.4,30.10,South,177,1.1,2.2,66,0.00,,,0.00,47.00,VWS V14.01,2013-06-15 14:05:00,
2013-06-15 10:06:00,78.8,66.4,30.10,SSW,205,0.0,2.2,66,0.00,,,0.00,47.00,VWS V14.01,2013-06-15 14:06:00,
2013-06-15 10:07:00,78.8,67.0,30.10,SSW,205,0.0,0.0,67,0.00,,,0.00,47.00,VWS V14.01,2013-06-15 14:07:00,
2013-06-15 10:08:00,78.8,67.0,30.10,SSW,205,0.0,0.0,67,0.00,,,0.00,49.00,VWS V14.01,2013-06-15 14:08:00,
2013-06-15 10:09:00,78.8,67.4,30.10,SSW,204,0.0,0.0,68,0.00,,,0.00,49.00,VWS V14.01,2013-06-15 14:09:00,
2013-06-15 10:10:00,78.8,67.0,30.10,SSW,205,2.2,2.2,67,0.00,,,0.00,49.00,VWS V14.01,2013-06-15 14:10:00,
2013-06-15 10:11:00,78.8,66.5,30.10,West,279,0.0,2.2,66,0.00,,,0.00,49.00,VWS V14.01,2013-06-15 14:11:00,
2013-06-15 10:12:00,78.8,67.0,30.10,West,279,0.0,0.0,67,0.00,,,0.00,49.00,VWS V14.01,2013-06-15 14:12:00,
2013-06-15 10:13:00,78.8,66.5,30.10,NE,39,0.0,2.2,66,0.00,,,0.00,49.00,VWS V14.01,2013-06-15 14:13:00,
2013-06-15 10:14:00,78.8,66.5,30.10,NE,39,0.0,0.0,66,0.00,,,0.00,49.00,VWS V14.01,2013-06-15 14:14:00,
2013-06-15 10:15:00,78.9,66.2,30.10,NE,39,0.0,1.1,65,0.00,,,0.00,49.00,VWS V14.01,2013-06-15 14:15:00,
2013-06-15 10:16:00,78.9,66.2,30.10,NE,39,0.0,1.1,65,0.00,,,0.00,49.00,VWS V14.01,2013-06-15 14:16:00,
2013-06-15 10:17:00,78.9,65.8,30.10,NE,39,0.0,1.1,64,0.00,,,0.00,49.00,VWS V14.01,2013-06-15 14:17:00,
2013-06-15 10:18:00,78.9,64.8,30.10,NE,39,0.0,0.0,62,0.00,,,0.00,51.00,VWS V14.01,2013-06-15 14:18:00,
2013-06-15 10:19:00,78.9,65.3,30.10,NE,39,0.0,0.0,63,0.00,,,0.00,53.00,VWS V14.01,2013-06-15 14:19:00,
2013-06-15 10:20:00,78.9,65.3,30.10,NE,43,1.1,1.1,63,0.00,,,0.00,54.00,VWS V14.01,2013-06-15 14:20:00,
2013-06-15 10:21:00,78.9,65.8,30.10,NE,50,0.0,1.1,64,0.00,,,0.00,54.00,VWS V14.01,2013-06-15 14:21:00,
2013-06-15 10:22:00,79.1,67.2,30.10,ESE,119,1.1,2.2,67,0.00,,,0.00,54.00,VWS V14.01,2013-06-15 14:22:00,
2013-06-15 10:23:00,79.2,66.4,30.10,SE,139,0.0,1.1,65,0.00,,,0.00,54.00,VWS V14.01,2013-06-15 14:23:00,
2013-06-15 10:24:00,79.3,67.4,30.10,SE,139,0.0,0.0,67,0.00,,,0.00,56.00,VWS V14.01,2013-06-15 14:24:00,
2013-06-15 10:25:00,79.7,65.9,30.10,ENE,60,1.1,1.1,63,0.00,,,0.00,54.00,VWS V14.01,2013-06-15 14:25:00,
2013-06-15 10:26:00,79.7,65.9,30.10,ENE,60,0.0,1.1,63,0.00,,,0.00,54.00,VWS V14.01,2013-06-15 14:26:00,
2013-06-15 10:27:00,79.8,66.5,30.10,North,4,2.2,4.4,64,0.00,,,0.00,53.00,VWS V14.01,2013-06-15 14:27:00,
2013-06-15 10:28:00,79.8,67.1,30.10,North,5,0.0,3.3,65,0.00,,,0.00,54.00,VWS V14.01,2013-06-15 14:28:00,
2013-06-15 10:29:00,79.8,67.1,30.10,North,5,1.1,1.1,65,0.00,,,0.00,54.00,VWS V14.01,2013-06-15 14:29:00,
2013-06-15 10:30:00,79.9,67.1,30.10,SW,236,0.0,0.0,65,0.00,,,0.00,54.00,VWS V14.01,2013-06-15 14:30:00,
2013-06-15 10:31:00,79.9,67.1,30.10,SW,236,0.0,0.0,65,0.00,,,0.00,53.00,VWS V14.01,2013-06-15 14:31:00,
2013-06-15 10:32:00,80.1,67.7,30.10,West,267,1.1,1.1,66,0.00,,,0.00,53.00,VWS V14.01,2013-06-15 14:32:00,
2013-06-15 10:33:00,80.1,65.4,30.10,North,6,3.3,3.3,61,0.00,,,0.00,53.00,VWS V14.01,2013-06-15 14:33:00,
2013-06-15 10:34:00,79.9,64.8,30.10,North,6,0.0,3.3,60,0.00,,,0.00,53.00,VWS V14.01,2013-06-15 14:34:00,
2013-06-15 10:35:00,79.8,65.1,30.10,NE,48,0.0,4.4,61,0.00,,,0.00,54.00,VWS V14.01,2013-06-15 14:35:00,
2013-06-15 10:36:00,79.8,65.1,30.10,NNE,29,0.0,4.4,61,0.00,,,0.00,54.00,VWS V14.01,2013-06-15 14:36:00,
2013-06-15 10:37:00,79.7,65.5,30.10,NNE,25,1.1,3.3,62,0.00,,,0.00,54.00,VWS V14.01,2013-06-15 14:37:00,
2013-06-15 10:38:00,79.7,64.6,30.10,NNE,25,1.1,1.1,60,0.00,,,0.00,56.00,VWS V14.01,2013-06-15 14:38:00,
2013-06-15 10:39:00,79.7,64.6,30.10,NNE,24,0.0,2.2,60,0.00,,,0.00,56.00,VWS V14.01,2013-06-15 14:39:00,
2013-06-15 10:40:00,79.8,64.2,30.10,NW,317,3.3,5.5,59,0.00,,,0.00,56.00,VWS V14.01,2013-06-15 14:40:00,
2013-06-15 10:41:00,79.8,64.2,30.10,NW,325,2.2,5.5,59,0.00,,,0.00,56.00,VWS V14.01,2013-06-15 14:41:00,
2013-06-15 10:42:00,79.8,65.1,30.10,NW,325,0.0,2.2,61,0.00,,,0.00,56.00,VWS V14.01,2013-06-15 14:42:00,
2013-06-15 10:43:00,79.8,65.7,30.10,NNW,334,2.2,2.2,62,0.00,,,0.00,58.00,VWS V14.01,2013-06-15 14:43:00,
2013-06-15 10:44:00,79.8,63.8,30.10,NNW,334,1.1,2.2,58,0.00,,,0.00,58.00,VWS V14.01,2013-06-15 14:44:00,
2013-06-15 10:45:00,79.9,64.3,30.10,NNW,334,0.0,0.0,59,0.00,,,0.00,56.00,VWS V14.01,2013-06-15 14:45:00,
2013-06-15 10:46:00,80.1,64.9,30.10,NNW,334,0.0,0.0,60,0.00,,,0.00,56.00,VWS V14.01,2013-06-15 14:46:00,
2013-06-15 10:47:00,80.1,65.4,30.10,North,9,0.0,2.2,61,0.00,,,0.00,56.00,VWS V14.01,2013-06-15 14:47:00,
2013-06-15 10:48:00,80.1,65.9,30.10,NNE,29,1.1,2.2,62,0.00,,,0.00,58.00,VWS V14.01,2013-06-15 14:48:00,
2013-06-15 10:49:00,79.9,64.8,30.10,NE,35,0.0,1.1,60,0.00,,,0.00,56.00,VWS V14.01,2013-06-15 14:49:00,
2013-06-15 10:50:00,80.1,64.4,30.10,SSW,206,1.1,1.1,59,0.00,,,0.00,58.00,VWS V14.01,2013-06-15 14:50:00,
2013-06-15 10:51:00,80.1,63.5,30.10,WSW,256,0.0,1.1,57,0.00,,,0.00,58.00,VWS V14.01,2013-06-15 14:51:00,
2013-06-15 10:52:00,80.1,63.0,30.10,WSW,256,0.0,0.0,56,0.00,,,0.00,65.00,VWS V14.01,2013-06-15 14:52:00,
2013-06-15 10:53:00,80.1,63.0,30.10,North,358,4.4,5.5,56,0.00,,,0.00,65.00,VWS V14.01,2013-06-15 14:53:00,
2013-06-15 10:54:00,80.2,64.5,30.11,WNW,285,3.3,4.4,59,0.00,,,0.00,62.00,VWS V14.01,2013-06-15 14:54:00,
2013-06-15 10:55:00,80.2,64.1,30.10,WNW,285,0.0,1.1,58,0.00,,,0.00,62.00,VWS V14.01,2013-06-15 14:55:00,
2013-06-15 10:56:00,80.2,64.5,30.10,WNW,285,0.0,1.1,59,0.00,,,0.00,62.00,VWS V14.01,2013-06-15 14:56:00,
2013-06-15 10:57:00,80.1,64.9,30.10,WNW,285,0.0,0.0,60,0.00,,,0.00,62.00,VWS V14.01,2013-06-15 14:57:00,
2013-06-15 10:58:00,80.2,65.0,30.10,NNW,348,4.4,4.4,60,0.00,,,0.00,63.00,VWS V14.01,2013-06-15 14:58:00,
2013-06-15 10:59:00,80.2,64.1,30.10,NNE,15,3.3,4.4,58,0.00,,,0.00,67.00,VWS V14.01,2013-06-15 14:59:00,
2013-06-15 11:00:00,80.2,63.5,30.11,NNE,21,0.0,0.0,57,0.00,,,0.00,79.00,VWS V14.01,2013-06-15 15:00:00,
2013-06-15 11:01:00,80.2,63.6,30.11,NNE,21,0.0,0.0,57,0.00,,,0.00,79.00,VWS V14.01,2013-06-15 15:01:00,
2013-06-15 11:02:00,80.2,64.6,30.11,NNE,21,0.0,0.0,59,0.00,,,0.00,97.00,VWS V14.01,2013-06-15 15:02:00,
2013-06-15 11:03:00,80.3,64.7,30.11,NNE,21,1.1,1.1,59,0.00,,,0.00,97.00,VWS V14.01,2013-06-15 15:03:00,
2013-06-15 11:04:00,80.4,64.3,30.11,South,173,0.0,1.1,58,0.00,,,0.00,146.00,VWS V14.01,2013-06-15 15:04:00,
2013-06-15 11:05:00,80.7,63.5,30.11,South,173,0.0,0.0,56,0.00,,,0.00,105.00,VWS V14.01,2013-06-15 15:05:00,
2013-06-15 11:06:00,80.7,63.5,30.11,South,172,1.1,1.1,56,0.00,,,0.00,86.00,VWS V14.01,2013-06-15 15:06:00,
2013-06-15 11:07:00,80.8,63.2,30.11,South,180,3.3,3.3,55,0.00,,,0.00,86.00,VWS V14.01,2013-06-15 15:07:00,
2013-06-15 11:08:00,80.9,63.8,30.11,South,178,0.0,3.3,56,0.00,,,0.00,84.00,VWS V14.01,2013-06-15 15:08:00,
2013-06-15 11:09:00,81.2,63.5,30.11,South,178,0.0,1.1,55,0.00,,,0.00,111.00,VWS V14.01,2013-06-15 15:09:00,
2013-06-15 11:10:00,81.2,64.0,30.11,South,178,0.0,1.1,56,0.00,,,0.00,105.00,VWS V14.01,2013-06-15 15:10:00,
2013-06-15 11:11:00,81.2,64.0,30.11,South,178,0.0,1.1,56,0.00,,,0.00,125.00,VWS V14.01,2013-06-15 15:11:00,
2013-06-15 11:12:00,81.2,65.1,30.11,South,178,1.1,1.1,58,0.00,,,0.00,200.00,VWS V14.01,2013-06-15 15:12:00,
2013-06-15 11:13:00,81.2,64.1,30.11,SSE,153,3.3,3.3,56,0.00,,,0.00,211.00,VWS V14.01,2013-06-15 15:13:00,
2013-06-15 11:14:00,81.2,63.6,30.11,SSE,150,0.0,3.3,55,0.00,,,0.00,211.00,VWS V14.01,2013-06-15 15:14:00,
2013-06-15 11:15:00,81.1,64.4,30.11,East,83,0.0,0.0,57,0.00,,,0.00,165.00,VWS V14.01,2013-06-15 15:15:00,
2013-06-15 11:16:00,81.1,64.4,30.11,East,83,0.0,0.0,57,0.00,,,0.00,165.00,VWS V14.01,2013-06-15 15:16:00,
2013-06-15 11:17:00,80.8,63.7,30.11,SE,146,0.0,2.2,56,0.00,,,0.00,791.00,VWS V14.01,2013-06-15 15:17:00,
2013-06-15 11:18:00,80.8,64.6,30.11,SE,143,0.0,1.1,58,0.00,,,0.00,814.00,VWS V14.01,2013-06-15 15:18:00,
2013-06-15 11:19:00,80.7,64.0,30.11,SE,143,0.0,0.0,57,0.00,,,0.00,817.00,VWS V14.01,2013-06-15 15:19:00,
2013-06-15 11:20:00,80.8,64.2,30.11,ESE,121,0.0,0.0,57,0.00,,,0.00,817.00,VWS V14.01,2013-06-15 15:20:00,
2013-06-15 11:21:00,80.9,64.3,30.11,ESE,121,0.0,0.0,57,0.00,,,0.00,803.00,VWS V14.01,2013-06-15 15:21:00,
2013-06-15 11:22:00,81.1,63.9,30.11,ESE,121,0.0,0.0,56,0.00,,,0.00,826.00,VWS V14.01,2013-06-15 15:22:00,
2013-06-15 11:23:00,81.2,63.5,30.11,ESE,121,0.0,0.0,55,0.00,,,0.00,823.00,VWS V14.01,2013-06-15 15:23:00,
2013-06-15 11:24:00,81.2,63.5,30.11,ESE,122,0.0,1.1,55,0.00,,,0.00,823.00,VWS V14.01,2013-06-15 15:24:00,
2013-06-15 11:25:00,81.2,64.5,30.11,SSE,148,2.2,3.3,57,0.00,,,0.00,823.00,VWS V14.01,2013-06-15 15:25:00,
2013-06-15 11:26:00,81.2,65.5,30.11,ESE,116,0.0,3.3,59,0.00,,,0.00,823.00,VWS V14.01,2013-06-15 15:26:00,
2013-06-15 11:27:00,81.2,65.1,30.11,ESE,118,0.0,1.1,58,0.00,,,0.00,851.00,VWS V14.01,2013-06-15 15:27:00,
2013-06-15 11:28:00,81.3,64.7,30.11,ENE,58,1.1,3.3,57,0.00,,,0.00,865.00,VWS V14.01,2013-06-15 15:28:00,
2013-06-15 11:29:00,81.6,64.3,30.11,NE,38,1.1,4.4,56,0.00,,,0.00,868.00,VWS V14.01,2013-06-15 15:29:00,
2013-06-15 11:30:00,81.7,63.4,30.11,North,358,0.0,1.1,54,0.00,,,0.00,879.00,VWS V14.01,2013-06-15 15:30:00,
2013-06-15 11:31:00,81.7,64.4,30.11,North,358,0.0,1.1,56,0.00,,,0.00,879.00,VWS V14.01,2013-06-15 15:31:00,
2013-06-15 11:32:00,81.6,63.8,30.11,NNW,348,3.3,3.3,55,0.00,,,0.00,879.00,VWS V14.01,2013-06-15 15:32:00,
2013-06-15 11:33:00,81.6,65.4,30.11,ENE,69,0.0,3.3,58,0.00,,,0.00,872.00,VWS V14.01,2013-06-15 15:33:00,
2013-06-15 11:34:00,81.6,64.3,30.11,NE,46,1.1,2.2,56,0.00,,,0.00,870.00,VWS V14.01,2013-06-15 15:34:00,
2013-06-15 11:35:00,81.8,66.0,30.11,NE,40,1.1,1.1,59,0.00,,,0.00,872.00,VWS V14.01,2013-06-15 15:35:00,
2013-06-15 11:36:00,81.8,66.0,30.11,NE,40,0.0,1.1,59,0.00,,,0.00,872.00,VWS V14.01,2013-06-15 15:36:00,
2013-06-15 11:37:00,81.8,66.6,30.11,South,186,3.3,3.3,60,0.00,,,0.00,877.00,VWS V14.01,2013-06-15 15:37:00,
2013-06-15 11:38:00,82.2,66.5,30.11,SSE,148,2.2,3.3,59,0.00,,,0.00,874.00,VWS V14.01,2013-06-15 15:38:00,
2013-06-15 11:39:00,82.6,66.8,30.11,SSE,160,0.0,3.3,59,0.00,,,0.00,882.00,VWS V14.01,2013-06-15 15:39:00,
2013-06-15 11:40:00,82.8,65.5,30.11,NNE,26,0.0,0.0,56,0.00,,,0.00,889.00,VWS V14.01,2013-06-15 15:40:00,
2013-06-15 11:41:00,82.8,65.5,30.11,NNE,26,0.0,1.1,56,0.00,,,0.00,895.00,VWS V14.01,2013-06-15 15:41:00,
2013-06-15 11:42:00,82.7,64.9,30.11,NNE,26,1.1,1.1,55,0.00,,,0.00,893.00,VWS V14.01,2013-06-15 15:42:00,
2013-06-15 11:43:00,82.6,64.2,30.11,NNE,23,0.0,2.2,54,0.00,,,0.00,896.00,VWS V14.01,2013-06-15 15:43:00,
2013-06-15 11:44:00,82.4,64.7,30.11,NNE,23,1.1,1.1,55,0.00,,,0.00,896.00,VWS V14.01,2013-06-15 15:44:00,
2013-06-15 11:45:00,82.4,65.2,30.11,ENE,57,1.1,2.2,56,0.00,,,0.00,898.00,VWS V14.01,2013-06-15 15:45:00,
2013-06-15 11:46:00,82.4,65.2,30.11,ENE,57,0.0,2.2,56,0.00,,,0.00,902.00,VWS V14.01,2013-06-15 15:46:00,
2013-06-15 11:47:00,82.4,65.2,30.11,ENE,57,0.0,1.1,56,0.00,,,0.00,909.00,VWS V14.01,2013-06-15 15:47:00,
2013-06-15 11:48:00,82.3,64.6,30.11,NNW,348,1.1,4.4,55,0.00,,,0.00,909.00,VWS V14.01,2013-06-15 15:48:00,
2013-06-15 11:49:00,82.3,65.6,30.11,North,353,0.0,2.2,57,0.00,,,0.00,914.00,VWS V14.01,2013-06-15 15:49:00,
2013-06-15 11:50:00,82.6,66.3,30.11,East,79,0.0,0.0,58,0.00,,,0.00,925.00,VWS V14.01,2013-06-15 15:50:00,
2013-06-15 11:51:00,82.6,66.3,30.11,East,80,1.1,1.1,58,0.00,,,0.00,925.00,VWS V14.01,2013-06-15 15:51:00,
2013-06-15 11:52:00,82.3,64.1,30.11,East,80,0.0,1.1,54,0.00,,,0.00,128.00,VWS V14.01,2013-06-15 15:52:00,
2013-06-15 11:53:00,82.1,64.8,30.11,East,80,0.0,0.0,56,0.00,,,0.00,141.00,VWS V14.01,2013-06-15 15:53:00,
2013-06-15 11:54:00,81.8,64.1,30.11,East,80,0.0,0.0,55,0.00,,,0.00,141.00,VWS V14.01,2013-06-15 15:54:00,
2013-06-15 11:55:00,81.4,63.8,30.11,East,80,0.0,1.1,55,0.00,,,0.00,158.00,VWS V14.01,2013-06-15 15:55:00,
2013-06-15 11:56:00,81.3,63.1,30.11,East,80,0.0,1.1,54,0.00,,,0.00,158.00,VWS V14.01,2013-06-15 15:56:00,
2013-06-15 11:57:00,81.3,63.7,30.11,East,81,0.0,1.1,55,0.00,,,0.00,158.00,VWS V14.01,2013-06-15 15:57:00,
2013-06-15 11:58:00,81.6,64.9,30.11,South,171,0.0,3.3,57,0.00,,,0.00,990.00,VWS V14.01,2013-06-15 15:58:00,
2013-06-15 11:59:00,81.8,65.1,30.11,South,171,0.0,1.1,57,0.00,,,0.00,1016.00,VWS V14.01,2013-06-15 15:59:00,
2013-06-15 12:00:00,82.3,66.6,30.11,SE,137,1.1,2.2,59,0.00,,,0.00,812.00,VWS V14.01,2013-06-15 16:00:00,
2013-06-15 12:01:00,82.4,66.2,30.11,SE,137,0.0,2.2,58,0.00,,,0.00,812.00,VWS V14.01,2013-06-15 16:01:00,
2013-06-15 12:02:00,82.4,64.7,30.11,SE,137,1.1,1.1,55,0.00,,,0.00,812.00,VWS V14.01,2013-06-15 16:02:00,
2013-06-15 12:03:00,82.4,65.2,30.11,SE,137,0.0,1.1,56,0.00,,,0.00,1011.00,VWS V14.01,2013-06-15 16:03:00,
2013-06-15 12:04:00,82.6,65.8,30.11,NNE,32,2.2,2.2,57,0.00,,,0.00,1011.00,VWS V14.01,2013-06-15 16:04:00,
2013-06-15 12:05:00,82.6,66.8,30.11,NNE,31,0.0,0.0,59,0.00,,,0.00,1011.00,VWS V14.01,2013-06-15 16:05:00,
2013-06-15 12:06:00,82.7,68.8,30.11,NE,53,0.0,0.0,63,0.00,,,0.00,1011.00,VWS V14.01,2013-06-15 16:06:00,
2013-06-15 12:07:00,83.1,69.6,30.11,NE,52,0.0,0.0,64,0.00,,,0.00,1011.00,VWS V14.01,2013-06-15 16:07:00,
2013-06-15 12:08:00,83.2,67.8,30.11,NE,52,0.0,1.1,60,0.00,,,0.00,997.00,VWS V14.01,2013-06-15 16:08:00,
2013-06-15 12:09:00,83.3,68.0,30.11,SSE,155,1.1,2.2,60,0.00,,,0.00,998.00,VWS V14.01,2013-06-15 16:09:00,
2013-06-15 12:10:00,83.8,67.5,30.11,SSE,158,5.5,5.5,58,0.00,,,0.00,1005.00,VWS V14.01,2013-06-15 16:10:00,
2013-06-15 12:11:00,83.8,67.5,30.11,ESE,122,1.1,5.5,58,0.00,,,0.00,1005.00,VWS V14.01,2013-06-15 16:11:00,
2013-06-15 12:12:00,83.8,67.0,30.11,SSE,167,2.2,4.4,57,0.00,,,0.00,1013.00,VWS V14.01,2013-06-15 16:12:00,
2013-06-15 12:13:00,83.9,66.1,30.11,SW,225,2.2,3.3,55,0.00,,,0.00,1020.00,VWS V14.01,2013-06-15 16:13:00,
2013-06-15 12:14:00,83.9,67.1,30.11,SW,222,0.0,2.2,57,0.00,,,0.00,1039.00,VWS V14.01,2013-06-15 16:14:00,
2013-06-15 12:15:00,83.7,65.3,30.11,SW,222,0.0,1.1,54,0.00,,,0.00,218.00,VWS V14.01,2013-06-15 16:15:00,
2013-06-15 12:16:00,83.4,65.1,30.11,SW,220,0.0,1.1,54,0.00,,,0.00,265.00,VWS V14.01,2013-06-15 16:16:00,
2013-06-15 12:17:00,83.2,65.8,30.11,ESE,114,0.0,3.3,56,0.00,,,0.00,265.00,VWS V14.01,2013-06-15 16:17:00,
2013-06-15 12:18:00,82.8,64.5,30.11,SSE,160,2.2,3.3,54,0.00,,,0.00,265.00,VWS V14.01,2013-06-15 16:18:00,
2013-06-15 12:19:00,82.8,63.9,30.11,SSE,160,0.0,2.2,53,0.00,,,0.00,895.00,VWS V14.01,2013-06-15 16:19:00,
2013-06-15 12:20:00,82.7,64.9,30.11,SSE,160,0.0,1.1,55,0.00,,,0.00,895.00,VWS V14.01,2013-06-15 16:20:00,
2013-06-15 12:21:00,82.6,64.8,30.11,SSE,160,1.1,1.1,55,0.00,,,0.00,165.00,VWS V14.01,2013-06-15 16:21:00,
2013-06-15 12:22:00,82.6,64.8,30.11,North,6,1.1,1.1,55,0.00,,,0.00,158.00,VWS V14.01,2013-06-15 16:22:00,
2013-06-15 12:23:00,82.3,67.6,30.11,North,358,0.0,1.1,61,0.00,,,0.00,153.00,VWS V14.01,2013-06-15 16:23:00,
2013-06-15 12:24:00,82.2,66.9,30.11,North,7,0.0,0.0,60,0.00,,,0.00,151.00,VWS V14.01,2013-06-15 16:24:00,
2013-06-15 12:25:00,81.8,66.5,30.11,SE,129,0.0,0.0,60,0.00,,,0.00,155.00,VWS V14.01,2013-06-15 16:25:00,
2013-06-15 12:26:00,81.7,65.4,30.11,ESE,106,0.0,1.1,58,0.00,,,0.00,163.00,VWS V14.01,2013-06-15 16:26:00,
2013-06-15 12:27:00,81.6,64.9,30.11,ESE,123,1.1,1.1,57,0.00,,,0.00,163.00,VWS V14.01,2013-06-15 16:27:00,
2013-06-15 12:28:00,81.3,66.2,30.11,ENE,66,0.0,1.1,60,0.00,,,0.00,162.00,VWS V14.01,2013-06-15 16:28:00,
2013-06-15 12:29:00,81.2,66.4,30.11,ENE,66,0.0,0.0,61,0.00,,,0.00,163.00,VWS V14.01,2013-06-15 16:29:00,
2013-06-15 12:30:00,80.8,66.2,30.11,ENE,68,0.0,0.0,61,0.00,,,0.00,181.00,VWS V14.01,2013-06-15 16:30:00,
2013-06-15 12:31:00,80.8,65.6,30.11,ENE,68,0.0,0.0,60,0.00,,,0.00,181.00,VWS V14.01,2013-06-15 16:31:00,
2013-06-15 12:32:00,80.8,65.6,30.11,ENE,69,0.0,0.0,60,0.00,,,0.00,200.00,VWS V14.01,2013-06-15 16:32:00,
2013-06-15 12:33:00,80.7,65.5,30.11,ENE,69,0.0,1.1,60,0.00,,,0.00,193.00,VWS V14.01,2013-06-15 16:33:00,
2013-06-15 12:34:00,80.6,65.4,30.11,ENE,68,1.1,1.1,60,0.00,,,0.00,221.00,VWS V14.01,2013-06-15 16:34:00,
2013-06-15 12:35:00,80.6,66.3,30.11,ENE,68,0.0,0.0,62,0.00,,,0.00,246.00,VWS V14.01,2013-06-15 16:35:00,
2013-06-15 12:36:00,80.7,67.8,30.11,NE,56,0.0,1.1,65,0.00,,,0.00,246.00,VWS V14.01,2013-06-15 16:36:00,
2013-06-15 12:37:00,80.8,68.3,30.11,North,5,2.2,2.2,66,0.00,,,0.00,316.00,VWS V14.01,2013-06-15 16:37:00,
2013-06-15 12:38:00,80.8,66.1,30.11,North,358,1.1,3.3,61,0.00,,,0.00,306.00,VWS V14.01,2013-06-15 16:38:00,
2013-06-15 12:39:00,80.8,65.7,30.11,North,358,0.0,1.1,60,0.00,,,0.00,306.00,VWS V14.01,2013-06-15 16:39:00,
2013-06-15 12:40:00,81.2,66.5,30.11,NE,53,0.0,1.1,61,0.00,,,0.00,1046.00,VWS V14.01,2013-06-15 16:40:00,
2013-06-15 12:41:00,81.3,65.2,30.11,NNE,26,2.2,2.2,58,0.00,,,0.00,1046.00,VWS V14.01,2013-06-15 16:41:00,
2013-06-15 12:42:00,81.6,64.3,30.11,North,4,1.1,3.3,56,0.00,,,0.00,1046.00,VWS V14.01,2013-06-15 16:42:00,
2013-06-15 12:43:00,81.8,64.0,30.11,North,4,1.1,2.2,55,0.00,,,0.00,1046.00,VWS V14.01,2013-06-15 16:43:00,
2013-06-15 12:44:00,82.1,64.3,30.11,North,4,0.0,1.1,55,0.00,,,0.00,1072.00,VWS V14.01,2013-06-15 16:44:00,
2013-06-15 12:45:00,82.6,66.3,30.11,North,5,0.0,1.1,58,0.00,,,0.00,1071.00,VWS V14.01,2013-06-15 16:45:00,
2013-06-15 12:46:00,82.8,66.5,30.11,North,5,0.0,1.1,58,0.00,,,0.00,1083.00,VWS V14.01,2013-06-15 16:46:00,
2013-06-15 12:47:00,83.1,65.2,30.11,North,5,0.0,0.0,55,0.00,,,0.00,1085.00,VWS V14.01,2013-06-15 16:47:00,
2013-06-15 12:48:00,83.2,66.8,30.11,SE,137,1.1,3.3,58,0.00,,,0.00,1079.00,VWS V14.01,2013-06-15 16:48:00,
2013-06-15 12:49:00,83.4,66.6,30.11,SSE,164,0.0,3.3,57,0.00,,,0.00,1060.00,VWS V14.01,2013-06-15 16:49:00,
2013-06-15 12:50:00,83.7,67.3,30.11,SSE,164,0.0,0.0,58,0.00,,,0.00,1051.00,VWS V14.01,2013-06-15 16:50:00,
2013-06-15 12:51:00,83.8,67.4,30.11,SSE,164,0.0,0.0,58,0.00,,,0.00,1051.00,VWS V14.01,2013-06-15 16:51:00,
2013-06-15 12:52:00,83.8,65.9,30.11,South,173,1.1,1.1,55,0.00,,,0.00,1069.00,VWS V14.01,2013-06-15 16:52:00,
2013-06-15 12:53:00,83.8,67.9,30.11,NNE,18,3.3,4.4,59,0.00,,,0.00,1069.00,VWS V14.01,2013-06-15 16:53:00,
2013-06-15 12:54:00,83.7,65.3,30.11,NNE,17,1.1,3.3,54,0.00,,,0.00,1069.00,VWS V14.01,2013-06-15 16:54:00,
2013-06-15 12:55:00,83.4,65.1,30.10,SSE,168,1.1,2.2,54,0.00,,,0.00,241.00,VWS V14.01,2013-06-15 16:55:00,
2013-06-15 12:56:00,83.3,65.0,30.10,WSW,244,1.1,2.2,54,0.00,,,0.00,241.00,VWS V14.01,2013-06-15 16:56:00,
2013-06-15 12:57:00,83.2,66.4,30.10,WNW,286,0.0,1.1,57,0.00,,,0.00,241.00,VWS V14.01,2013-06-15 16:57:00,
2013-06-15 12:58:00,83.2,65.9,30.10,NNE,16,1.1,2.2,56,0.00,,,0.00,241.00,VWS V14.01,2013-06-15 16:58:00,
2013-06-15 12:59:00,83.2,66.4,30.10,NNE,16,1.1,2.2,57,0.00,,,0.00,1083.00,VWS V14.01,2013-06-15 16:59:00,
2013-06-15 13:00:00,83.4,65.6,30.10,NW,316,1.1,2.2,55,0.00,,,0.00,1071.00,VWS V14.01,2013-06-15 17:00:00,
2013-06-15 13:01:00,83.6,67.2,30.10,NNW,328,2.2,2.2,58,0.00,,,0.00,1071.00,VWS V14.01,2013-06-15 17:01:00,
2013-06-15 13:02:00,83.8,66.4,30.10,North,9,3.3,3.3,56,0.00,,,0.00,1079.00,VWS V14.01,2013-06-15 17:02:00,
2013-06-15 13:03:00,83.6,63.5,30.10,North,6,0.0,3.3,51,0.00,,,0.00,1081.00,VWS V14.01,2013-06-15 17:03:00,
2013-06-15 13:04:00,83.4,64.5,30.10,North,6,0.0,0.0,53,0.00,,,0.00,1081.00,VWS V14.01,2013-06-15 17:04:00,
2013-06-15 13:05:00,83.7,66.3,30.10,South,177,1.1,4.4,56,0.00,,,0.00,1093.00,VWS V14.01,2013-06-15 17:05:00,
2013-06-15 13:06:00,83.8,66.5,30.10,SSE,152,1.1,4.4,56,0.00,,,0.00,1093.00,VWS V14.01,2013-06-15 17:06:00,
2013-06-15 13:07:00,84.2,67.4,30.10,SSE,157,2.2,3.3,57,0.00,,,0.00,1100.00,VWS V14.01,2013-06-15 17:07:00,
2013-06-15 13:08:00,84.4,68.1,30.10,SSE,157,0.0,2.2,58,0.00,,,0.00,1121.00,VWS V14.01,2013-06-15 17:08:00,
2013-06-15 13:09:00,84.8,67.9,30.10,NE,37,1.1,4.4,57,0.00,,,0.00,1146.00,VWS V14.01,2013-06-15 17:09:00,
2013-06-15 13:10:00,85.2,68.2,30.10,SE,146,2.2,2.2,57,0.00,,,0.00,1164.00,VWS V14.01,2013-06-15 17:10:00,
2013-06-15 13:11:00,85.2,67.8,30.10,SSW,205,0.0,4.4,56,0.00,,,0.00,1164.00,VWS V14.01,2013-06-15 17:11:00,
2013-06-15 13:12:00,85.3,67.4,30.10,South,182,0.0,1.1,55,0.00,,,0.00,1199.00,VWS V14.01,2013-06-15 17:12:00,
2013-06-15 13:13:00,85.3,67.9,30.10,NNE,29,0.0,2.2,56,0.00,,,0.00,1148.00,VWS V14.01,2013-06-15 17:13:00,
2013-06-15 13:14:00,85.1,67.1,30.10,NNE,29,0.0,1.1,55,0.00,,,0.00,285.00,VWS V14.01,2013-06-15 17:14:00,
2013-06-15 13:15:00,84.6,68.7,30.10,ENE,58,2.2,5.5,59,0.00,,,0.00,272.00,VWS V14.01,2013-06-15 17:15:00,
2013-06-15 13:16:00,84.3,68.0,30.10,SSE,154,2.2,5.5,58,0.00,,,0.00,264.00,VWS V14.01,2013-06-15 17:16:00,
2013-06-15 13:17:00,84.2,68.8,30.10,South,171,0.0,2.2,60,0.00,,,0.00,255.00,VWS V14.01,2013-06-15 17:17:00,
2013-06-15 13:18:00,83.8,67.0,30.10,South,171,0.0,1.1,57,0.00,,,0.00,255.00,VWS V14.01,2013-06-15 17:18:00,
2013-06-15 13:19:00,83.6,66.7,30.10,SSW,208,4.4,4.4,57,0.00,,,0.00,288.00,VWS V14.01,2013-06-15 17:19:00,
2013-06-15 13:20:00,83.2,66.8,30.10,South,175,2.2,2.2,58,0.00,,,0.00,288.00,VWS V14.01,2013-06-15 17:20:00,
2013-06-15 13:21:00,83.1,66.8,30.10,SSW,212,2.2,3.3,58,0.00,,,0.00,288.00,VWS V14.01,2013-06-15 17:21:00,
2013-06-15 13:22:00,83.2,68.3,30.10,South,180,0.0,2.2,61,0.00,,,0.00,288.00,VWS V14.01,2013-06-15 17:22:00,
2013-06-15 13:23:00,83.2,67.3,30.10,West,275,0.0,4.4,59,0.00,,,0.00,304.00,VWS V14.01,2013-06-15 17:23:00,
2013-06-15 13:24:00,83.2,67.3,30.09,West,281,0.0,0.0,59,0.00,,,0.00,332.00,VWS V14.01,2013-06-15 17:24:00,
2013-06-15 13:25:00,83.1,68.2,30.10,East,96,0.0,1.1,61,0.00,,,0.00,332.00,VWS V14.01,2013-06-15 17:25:00,
2013-06-15 13:26:00,83.1,68.7,30.10,East,96,0.0,1.1,62,0.00,,,0.00,330.00,VWS V14.01,2013-06-15 17:26:00,
2013-06-15 13:27:00,83.1,68.7,30.09,East,96,0.0,0.0,62,0.00,,,0.00,285.00,VWS V14.01,2013-06-15 17:27:00,
2013-06-15 13:28:00,82.8,67.0,30.10,SSE,153,2.2,4.4,59,0.00,,,0.00,279.00,VWS V14.01,2013-06-15 17:28:00,
2013-06-15 13:29:00,82.6,67.3,30.09,South,185,1.1,2.2,60,0.00,,,0.00,274.00,VWS V14.01,2013-06-15 17:29:00,
2013-06-15 13:30:00,82.4,67.2,30.09,SE,141,1.1,3.3,60,0.00,,,0.00,271.00,VWS V14.01,2013-06-15 17:30:00,
2013-06-15 13:31:00,82.3,66.6,30.09,SE,135,0.0,3.3,59,0.00,,,0.00,265.00,VWS V14.01,2013-06-15 17:31:00,
2013-06-15 13:32:00,82.2,65.9,30.09,SSE,151,0.0,2.2,58,0.00,,,0.00,255.00,VWS V14.01,2013-06-15 17:32:00,
2013-06-15 13:33:00,81.9,65.7,30.09,SE,126,0.0,1.1,58,0.00,,,0.00,251.00,VWS V14.01,2013-06-15 17:33:00,
2013-06-15 13:34:00,81.8,67.5,30.09,SE,126,0.0,0.0,62,0.00,,,0.00,262.00,VWS V14.01,2013-06-15 17:34:00,
2013-06-15 13:35:00,81.6,66.8,30.09,SE,139,0.0,0.0,61,0.00,,,0.00,262.00,VWS V14.01,2013-06-15 17:35:00,
2013-06-15 13:36:00,81.6,67.3,30.09,SE,139,0.0,0.0,62,0.00,,,0.00,237.00,VWS V14.01,2013-06-15 17:36:00,
2013-06-15 13:37:00,81.4,67.2,30.09,SE,139,0.0,2.2,62,0.00,,,0.00,236.00,VWS V14.01,2013-06-15 17:37:00,
2013-06-15 13:38:00,81.3,67.1,30.09,SE,139,0.0,0.0,62,0.00,,,0.00,229.00,VWS V14.01,2013-06-15 17:38:00,
2013-06-15 13:39:00,81.2,68.4,30.09,SE,139,0.0,1.1,65,0.00,,,0.00,264.00,VWS V14.01,2013-06-15 17:39:00,
2013-06-15 13:40:00,81.2,67.5,30.09,NE,43,0.0,1.1,63,0.00,,,0.00,299.00,VWS V14.01,2013-06-15 17:40:00,
2013-06-15 13:41:00,81.2,68.4,30.09,SSW,195,0.0,1.1,65,0.00,,,0.00,299.00,VWS V14.01,2013-06-15 17:41:00,
2013-06-15 13:42:00,81.4,67.7,30.09,SE,125,2.2,4.4,63,0.00,,,0.00,1109.00,VWS V14.01,2013-06-15 17:42:00,
2013-06-15 13:43:00,81.8,68.0,30.09,SSE,148,1.1,4.4,63,0.00,,,0.00,1109.00,VWS V14.01,2013-06-15 17:43:00,
2013-06-15 13:44:00,82.3,69.0,30.09,SE,145,0.0,1.1,64,0.00,,,0.00,1049.00,VWS V14.01,2013-06-15 17:44:00,
2013-06-15 13:45:00,82.9,68.6,30.09,SE,145,0.0,0.0,62,0.00,,,0.00,1046.00,VWS V14.01,2013-06-15 17:45:00,
2013-06-15 13:46:00,83.2,69.3,30.09,SE,142,0.0,4.4,63,0.00,,,0.00,1048.00,VWS V14.01,2013-06-15 17:46:00,
2013-06-15 13:47:00,83.6,69.2,30.09,North,4,0.0,3.3,62,0.00,,,0.00,1051.00,VWS V14.01,2013-06-15 17:47:00,
2013-06-15 13:50:00,84.2,68.3,30.09,SE,141,0.0,0.0,59,0.00,,,0.00,311.00,VWS V14.01,2013-06-15 17:50:00,
2013-06-15 13:57:00,82.8,67.6,30.09,ESE,106,2.2,5.5,60,0.00,,,0.00,304.00,VWS V14.01,2013-06-15 17:57:00,
2013-06-15 14:02:00,82.2,67.4,30.09,SSW,208,1.1,1.1,61,0.00,,,0.00,269.00,VWS V14.01,2013-06-15 18:02:00,
2013-06-15 14:07:00,82.3,67.1,30.09,ESE,116,3.3,3.3,60,0.00,,,0.00,1136.00,VWS V14.01,2013-06-15 18:07:00,
2013-06-15 14:12:00,83.8,67.0,30.09,SE,143,0.0,0.0,57,0.00,,,0.00,1146.00,VWS V14.01,2013-06-15 18:12:00,
2013-06-15 14:17:00,84.3,67.5,30.09,ESE,121,0.0,0.0,57,0.00,,,0.00,1060.00,VWS V14.01,2013-06-15 18:17:00,
2013-06-15 14:22:00,85.2,68.2,30.09,SE,129,4.4,4.4,57,0.00,,,0.00,933.00,VWS V14.01,2013-06-15 18:22:00,
2013-06-15 14:27:00,84.9,66.5,30.09,SW,214,3.3,4.4,54,0.00,,,0.00,1100.00,VWS V14.01,2013-06-15 18:27:00,
2013-06-15 14:32:00,84.8,65.7,30.09,South,172,2.2,2.2,53,0.00,,,0.00,1106.00,VWS V14.01,2013-06-15 18:32:00,
2013-06-15 14:37:00,85.4,68.0,30.09,WSW,244,5.5,6.6,56,0.00,,,0.00,1002.00,VWS V14.01,2013-06-15 18:37:00,
2013-06-15 14:42:00,85.2,66.1,30.08,SE,146,0.0,2.2,53,0.00,,,0.00,997.00,VWS V14.01,2013-06-15 18:42:00,
2013-06-15 14:47:00,84.8,66.9,30.08,SE,139,0.0,0.0,55,0.00,,,0.00,930.00,VWS V14.01,2013-06-15 18:47:00,
2013-06-15 14:52:00,85.2,68.7,30.08,ENE,73,0.0,1.1,58,0.00,,,0.00,670.00,VWS V14.01,2013-06-15 18:52:00,
2013-06-15 14:57:00,84.6,67.1,30.08,SSE,157,1.1,1.1,56,0.00,,,0.00,912.00,VWS V14.01,2013-06-15 18:57:00,
2013-06-15 15:02:00,84.7,67.2,30.08,East,89,0.0,0.0,56,0.00,,,0.00,884.00,VWS V14.01,2013-06-15 19:02:00,
2013-06-15 15:07:00,84.3,67.5,30.08,SE,130,0.0,0.0,57,0.00,,,0.00,923.00,VWS V14.01,2013-06-15 19:07:00,
2013-06-15 15:12:00,84.7,67.8,30.08,SSE,151,2.2,2.2,57,0.00,,,0.00,1013.00,VWS V14.01,2013-06-15 19:12:00,
2013-06-15 15:17:00,84.6,67.1,30.08,SE,137,1.1,1.1,56,0.00,,,0.00,221.00,VWS V14.01,2013-06-15 19:17:00,
2013-06-15 15:22:00,83.2,67.4,30.08,ESE,102,0.0,0.0,59,0.00,,,0.00,949.00,VWS V14.01,2013-06-15 19:22:00,
2013-06-15 15:27:00,84.1,67.7,30.08,ESE,102,1.1,1.1,58,0.00,,,0.00,863.00,VWS V14.01,2013-06-15 19:27:00,
2013-06-15 15:32:00,84.7,67.8,30.08,ENE,62,0.0,0.0,57,0.00,,,0.00,851.00,VWS V14.01,2013-06-15 19:32:00,
2013-06-15 15:37:00,84.7,65.7,30.08,ENE,75,2.2,4.4,53,0.00,,,0.00,837.00,VWS V14.01,2013-06-15 19:37:00,
2013-06-15 15:42:00,84.4,67.1,30.08,SSW,203,4.4,4.4,56,0.00,,,0.00,826.00,VWS V14.01,2013-06-15 19:42:00,
2013-06-15 15:47:00,84.3,68.5,30.08,SSE,160,1.1,1.1,59,0.00,,,0.00,844.00,VWS V14.01,2013-06-15 19:47:00,
2013-06-15 15:52:00,83.8,66.0,30.08,South,191,0.0,1.1,55,0.00,,,0.00,192.00,VWS V14.01,2013-06-15 19:52:00,
2013-06-15 15:57:00,83.7,65.8,30.08,ESE,123,0.0,0.0,55,0.00,,,0.00,802.00,VWS V14.01,2013-06-15 19:57:00,
2013-06-15 16:02:00,84.2,66.8,30.09,NE,36,1.1,1.1,56,0.00,,,0.00,775.00,VWS V14.01,2013-06-15 20:02:00,
2013-06-15 16:07:00,84.4,66.5,30.09,East,87,0.0,0.0,55,0.00,,,0.00,765.00,VWS V14.01,2013-06-15 20:07:00,
2013-06-15 16:12:00,84.4,67.1,30.08,South,189,4.4,4.4,56,0.00,,,0.00,754.00,VWS V14.01,2013-06-15 20:12:00,
2013-06-15 16:17:00,84.2,65.8,30.09,NE,44,0.0,1.1,54,0.00,,,0.00,744.00,VWS V14.01,2013-06-15 20:17:00,
2013-06-15 16:22:00,84.2,64.6,30.08,ENE,77,0.0,0.0,52,0.00,,,0.00,724.00,VWS V14.01,2013-06-15 20:22:00,
2013-06-15 16:27:00,84.1,66.2,30.09,East,93,0.0,0.0,55,0.00,,,0.00,698.00,VWS V14.01,2013-06-15 20:27:00,
2013-06-15 16:32:00,84.1,65.1,30.09,SSW,210,2.2,2.2,53,0.00,,,0.00,691.00,VWS V14.01,2013-06-15 20:32:00,
2013-06-15 16:37:00,83.8,64.9,30.09,NE,54,0.0,1.1,53,0.00,,,0.00,680.00,VWS V14.01,2013-06-15 20:37:00,
2013-06-15 16:42:00,84.2,66.9,30.09,NE,44,0.0,0.0,56,0.00,,,0.00,671.00,VWS V14.01,2013-06-15 20:42:00,
2013-06-15 16:47:00,83.8,63.7,30.09,NNE,17,2.2,2.2,51,0.00,,,0.00,656.00,VWS V14.01,2013-06-15 20:47:00,
2013-06-15 16:52:00,83.4,64.5,30.09,SE,135,0.0,0.0,53,0.00,,,0.00,643.00,VWS V14.01,2013-06-15 20:52:00,
2013-06-15 16:57:00,83.4,64.5,30.09,North,7,1.1,1.1,53,0.00,,,0.00,613.00,VWS V14.01,2013-06-15 20:57:00,
2013-06-15 17:02:00,83.4,65.6,30.09,North,6,1.1,1.1,55,0.00,,,0.00,601.00,VWS V14.01,2013-06-15 21:02:00,
2013-06-15 17:07:00,83.3,63.3,30.09,SE,140,2.2,4.4,51,0.00,,,0.00,585.00,VWS V14.01,2013-06-15 21:07:00,
2013-06-15 17:12:00,83.1,63.6,30.09,ENE,71,0.0,1.1,52,0.00,,,0.00,568.00,VWS V14.01,2013-06-15 21:12:00,
2013-06-15 17:17:00,83.2,65.3,30.08,ESE,109,0.0,0.0,55,0.00,,,0.00,555.00,VWS V14.01,2013-06-15 21:17:00,
2013-06-15 17:22:00,82.8,63.4,30.08,ESE,114,4.4,4.4,52,0.00,,,0.00,497.00,VWS V14.01,2013-06-15 21:22:00,
2013-06-15 17:27:00,82.3,63.0,30.08,SE,144,2.2,3.3,52,0.00,,,0.00,93.00,VWS V14.01,2013-06-15 21:27:00,
2013-06-15 17:32:00,82.3,63.5,30.08,WSW,237,0.0,0.0,53,0.00,,,0.00,102.00,VWS V14.01,2013-06-15 21:32:00,
2013-06-15 17:37:00,82.2,62.8,30.08,ESE,112,1.1,1.1,52,0.00,,,0.00,84.00,VWS V14.01,2013-06-15 21:37:00,
2013-06-15 17:42:00,81.8,63.1,30.08,South,179,1.1,1.1,53,0.00,,,0.00,84.00,VWS V14.01,2013-06-15 21:42:00,
2013-06-15 17:47:00,81.8,62.0,30.08,SW,219,2.2,4.4,51,0.00,,,0.00,81.00,VWS V14.01,2013-06-15 21:47:00,
2013-06-15 17:52:00,81.4,62.7,30.09,East,79,2.2,3.3,53,0.00,,,0.00,81.00,VWS V14.01,2013-06-15 21:52:00,
2013-06-15 17:57:00,81.7,61.8,30.09,ESE,121,0.0,0.0,51,0.00,,,0.00,79.00,VWS V14.01,2013-06-15 21:57:00,
2013-06-15 18:02:00,81.4,61.6,30.09,ESE,119,0.0,0.0,51,0.00,,,0.00,81.00,VWS V14.01,2013-06-15 22:02:00,
2013-06-15 18:07:00,81.2,60.9,30.08,South,172,1.1,1.1,50,0.00,,,0.00,77.00,VWS V14.01,2013-06-15 22:07:00,
2013-06-15 18:12:00,81.3,61.5,30.08,SE,143,1.1,5.5,51,0.00,,,0.00,139.00,VWS V14.01,2013-06-15 22:12:00,
2013-06-15 18:17:00,81.1,60.7,30.08,NE,48,0.0,0.0,50,0.00,,,0.00,186.00,VWS V14.01,2013-06-15 22:17:00,
2013-06-15 18:22:00,80.8,60.4,30.08,SSE,157,1.1,1.1,50,0.00,,,0.00,81.00,VWS V14.01,2013-06-15 22:22:00,
2013-06-15 18:27:00,80.7,60.3,30.08,SE,137,1.1,1.1,50,0.00,,,0.00,83.00,VWS V14.01,2013-06-15 22:27:00,
2013-06-15 18:32:00,80.6,59.1,30.08,SSE,160,0.0,1.1,48,0.00,,,0.00,79.00,VWS V14.01,2013-06-15 22:32:00,
2013-06-15 18:37:00,80.3,60.6,30.08,ESE,110,0.0,0.0,51,0.00,,,0.00,88.00,VWS V14.01,2013-06-15 22:37:00,
2013-06-15 18:42:00,80.1,59.8,30.08,SE,142,0.0,1.1,50,0.00,,,0.00,127.00,VWS V14.01,2013-06-15 22:42:00,
2013-06-15 18:47:00,79.9,60.2,30.08,SE,143,0.0,0.0,51,0.00,,,0.00,72.00,VWS V14.01,2013-06-15 22:47:00,
2013-06-15 18:52:00,79.8,58.9,30.08,ESE,108,2.2,2.2,49,0.00,,,0.00,67.00,VWS V14.01,2013-06-15 22:52:00,
2013-06-15 18:57:00,79.6,59.3,30.08,SE,143,1.1,1.1,50,0.00,,,0.00,63.00,VWS V14.01,2013-06-15 22:57:00,
2013-06-15 19:02:00,79.3,59.1,30.09,ESE,110,1.1,1.1,50,0.00,,,0.00,56.00,VWS V14.01,2013-06-15 23:02:00,
2013-06-15 19:07:00,79.2,58.4,30.09,SSE,158,0.0,0.0,49,0.00,,,0.00,51.00,VWS V14.01,2013-06-15 23:07:00,
2013-06-15 19:12:00,78.8,60.8,30.08,East,95,0.0,0.0,54,0.00,,,0.00,46.00,VWS V14.01,2013-06-15 23:12:00,
2013-06-15 19:17:00,78.3,60.3,30.09,SSE,151,0.0,1.1,54,0.00,,,0.00,40.00,VWS V14.01,2013-06-15 23:17:00,
2013-06-15 19:22:00,78.2,60.8,30.09,South,177,0.0,0.0,55,0.00,,,0.00,37.00,VWS V14.01,2013-06-15 23:22:00,
2013-06-15 19:27:00,77.9,59.5,30.09,SSE,148,0.0,0.0,53,0.00,,,0.00,33.00,VWS V14.01,2013-06-15 23:27:00,
2013-06-15 19:32:00,77.8,60.3,30.09,SSE,148,0.0,0.0,55,0.00,,,0.00,30.00,VWS V14.01,2013-06-15 23:32:00,
2013-06-15 19:37:00,77.2,61.8,30.10,SSE,148,0.0,0.0,59,0.00,,,0.00,26.00,VWS V14.01,2013-06-15 23:37:00,
2013-06-15 19:42:00,76.6,62.1,30.10,SSE,148,0.0,0.0,61,0.00,,,0.00,23.00,VWS V14.01,2013-06-15 23:42:00,
2013-06-15 19:47:00,75.8,63.2,30.09,SSE,148,0.0,0.0,65,0.00,,,0.00,19.00,VWS V14.01,2013-06-15 23:47:00,
2013-06-15 19:52:00,74.9,63.7,30.09,SSE,148,0.0,0.0,68,0.00,,,0.00,18.00,VWS V14.01,2013-06-15 23:52:00,
2013-06-15 19:57:00,74.3,63.1,30.09,SSE,148,0.0,0.0,68,0.00,,,0.00,18.00,VWS V14.01,2013-06-15 23:57:00,
2013-06-15 20:02:00,73.9,62.3,30.09,SSE,148,0.0,0.0,67,0.00,,,0.00,16.00,VWS V14.01,2013-06-16 00:02:00,
2013-06-15 20:07:00,73.3,63.4,30.09,SSE,148,0.0,0.0,71,0.00,,,0.00,14.00,VWS V14.01,2013-06-16 00:07:00,
2013-06-15 20:12:00,72.9,63.0,30.09,SSE,148,0.0,0.0,71,0.00,,,0.00,12.00,VWS V14.01,2013-06-16 00:12:00,
2013-06-15 20:17:00,72.7,63.9,30.09,SSE,148,0.0,0.0,74,0.00,,,0.00,9.00,VWS V14.01,2013-06-16 00:17:00,
2013-06-15 20:22:00,71.8,63.9,30.09,SSE,148,0.0,0.0,76,0.00,,,0.00,7.00,VWS V14.01,2013-06-16 00:22:00,
2013-06-15 20:27:00,71.3,63.4,30.09,SSE,148,0.0,0.0,76,0.00,,,0.00,0.00,VWS V14.01,2013-06-16 00:27:00,
2013-06-15 20:32:00,71.2,63.6,30.09,SSE,148,0.0,0.0,77,0.00,,,0.00,0.00,VWS V14.01,2013-06-16 00:32:00,
2013-06-15 20:37:00,70.4,63.3,30.09,SSE,148,0.0,0.0,78,0.00,,,0.00,0.00,VWS V14.01,2013-06-16 00:37:00,
2013-06-15 20:42:00,69.9,63.2,30.09,SSE,148,0.0,0.0,79,0.00,,,0.00,0.00,VWS V14.01,2013-06-16 00:42:00,
2013-06-15 20:47:00,69.6,62.0,30.09,SSE,148,0.0,0.0,77,0.00,,,0.00,0.00,VWS V14.01,2013-06-16 00:47:00,
2013-06-15 20:52:00,69.6,63.1,30.09,SSE,148,0.0,0.0,80,0.00,,,0.00,0.00,VWS V14.01,2013-06-16 00:52:00,
2013-06-15 20:57:00,69.3,62.9,30.09,SSE,148,0.0,0.0,80,0.00,,,0.00,0.00,VWS V14.01,2013-06-16 00:57:00,
2013-06-15 21:02:00,69.2,63.1,30.09,SSE,148,0.0,0.0,81,0.00,,,0.00,0.00,VWS V14.01,2013-06-16 01:02:00,
2013-06-15 21:07:00,69.2,62.7,30.09,SSE,148,0.0,0.0,80,0.00,,,0.00,0.00,VWS V14.01,2013-06-16 01:07:00,
2013-06-15 21:12:00,68.8,62.8,30.09,SSE,148,0.0,0.0,81,0.00,,,0.00,0.00,VWS V14.01,2013-06-16 01:12:00,
2013-06-15 21:17:00,68.2,62.5,30.10,SSE,148,0.0,0.0,82,0.00,,,0.00,0.00,VWS V14.01,2013-06-16 01:17:00,
2013-06-15 21:22:00,68.2,62.9,30.09,SSE,148,0.0,0.0,83,0.00,,,0.00,0.00,VWS V14.01,2013-06-16 01:22:00,
2013-06-15 21:27:00,68.2,62.2,30.10,SSE,148,0.0,0.0,81,0.00,,,0.00,0.00,VWS V14.01,2013-06-16 01:27:00,
2013-06-15 21:32:00,68.3,62.7,30.10,SSE,148,0.0,0.0,82,0.00,,,0.00,0.00,VWS V14.01,2013-06-16 01:32:00,
2013-06-15 21:37:00,68.1,62.7,30.10,SSE,148,0.0,0.0,83,0.00,,,0.00,0.00,VWS V14.01,2013-06-16 01:37:00,
2013-06-15 21:42:00,67.8,62.8,30.10,SSE,148,0.0,0.0,84,0.00,,,0.00,0.00,VWS V14.01,2013-06-16 01:42:00,
2013-06-15 21:47:00,67.7,63.0,30.10,SSE,148,0.0,0.0,85,0.00,,,0.00,0.00,VWS V14.01,2013-06-16 01:47:00,
2013-06-15 21:52:00,67.8,62.8,30.10,SSE,148,0.0,0.0,84,0.00,,,0.00,0.00,VWS V14.01,2013-06-16 01:52:00,
2013-06-15 21:57:00,67.7,63.0,30.10,SSE,148,0.0,0.0,85,0.00,,,0.00,0.00,VWS V14.01,2013-06-16 01:57:00,
2013-06-15 22:02:00,67.1,62.7,30.10,SSE,148,0.0,0.0,86,0.00,,,0.00,0.00,VWS V14.01,2013-06-16 02:02:00,
2013-06-15 22:07:00,66.7,62.7,30.11,SSE,148,0.0,0.0,87,0.00,,,0.00,0.00,VWS V14.01,2013-06-16 02:07:00,
2013-06-15 22:12:00,66.7,62.7,30.11,SSE,148,0.0,0.0,87,0.00,,,0.00,0.00,VWS V14.01,2013-06-16 02:12:00,
2013-06-15 22:17:00,66.4,62.5,30.11,SSE,148,0.0,0.0,87,0.00,,,0.00,0.00,VWS V14.01,2013-06-16 02:17:00,
2013-06-15 22:22:00,66.3,62.7,30.11,SSE,148,0.0,0.0,88,0.00,,,0.00,0.00,VWS V14.01,2013-06-16 02:22:00,
2013-06-15 22:27:00,66.2,62.6,30.11,SSE,148,0.0,0.0,88,0.00,,,0.00,0.00,VWS V14.01,2013-06-16 02:27:00,
2013-06-15 22:32:00,66.1,62.7,30.11,SSE,148,0.0,0.0,89,0.00,,,0.00,0.00,VWS V14.01,2013-06-16 02:32:00,
2013-06-15 22:37:00,65.9,62.6,30.11,SSE,148,0.0,0.0,89,0.00,,,0.00,0.00,VWS V14.01,2013-06-16 02:37:00,
2013-06-15 22:42:00,65.8,62.7,30.11,SSE,148,0.0,0.0,90,0.00,,,0.00,0.00,VWS V14.01,2013-06-16 02:42:00,
2013-06-15 22:47:00,65.8,62.7,30.11,SSE,148,0.0,0.0,90,0.00,,,0.00,0.00,VWS V14.01,2013-06-16 02:47:00,
2013-06-15 22:52:00,65.8,62.7,30.11,SSE,148,0.0,0.0,90,0.00,,,0.00,0.00,VWS V14.01,2013-06-16 02:52:00,
2013-06-15 22:57:00,65.8,62.7,30.11,SSE,148,0.0,0.0,90,0.00,,,0.00,0.00,VWS V14.01,2013-06-16 02:57:00,
2013-06-15 23:02:00,65.8,62.7,30.11,SSE,148,0.0,0.0,90,0.00,,,0.00,0.00,VWS V14.01,2013-06-16 03:02:00,
2013-06-15 23:07:00,65.4,62.4,30.11,SSE,148,0.0,0.0,90,0.00,,,0.00,0.00,VWS V14.01,2013-06-16 03:07:00,
2013-06-15 23:12:00,65.3,62.7,30.11,SSE,148,0.0,0.0,91,0.00,,,0.00,0.00,VWS V14.01,2013-06-16 03:12:00,
2013-06-15 23:17:00,65.3,62.7,30.11,SSE,148,0.0,0.0,91,0.00,,,0.00,0.00,VWS V14.01,2013-06-16 03:17:00,
2013-06-15 23:22:00,65.3,62.7,30.11,SSE,148,0.0,0.0,91,0.00,,,0.00,0.00,VWS V14.01,2013-06-16 03:22:00,
2013-06-15 23:27:00,65.2,62.5,30.11,SSE,148,0.0,0.0,91,0.00,,,0.00,0.00,VWS V14.01,2013-06-16 03:27:00,
2013-06-15 23:32:00,65.1,62.7,30.11,SSE,148,0.0,0.0,92,0.00,,,0.00,0.00,VWS V14.01,2013-06-16 03:32:00,
2013-06-15 23:37:00,64.9,62.6,30.11,SSE,148,0.0,0.0,92,0.00,,,0.00,0.00,VWS V14.01,2013-06-16 03:37:00,
2013-06-15 23:42:00,64.8,62.5,30.11,SSE,148,0.0,0.0,92,0.00,,,0.00,0.00,VWS V14.01,2013-06-16 03:42:00,
2013-06-15 23:47:00,64.8,62.7,30.11,SSE,148,0.0,0.0,93,0.00,,,0.00,0.00,VWS V14.01,2013-06-16 03:47:00,
2013-06-15 23:52:00,64.6,62.5,30.11,SSE,148,0.0,0.0,93,0.00,,,0.00,0.00,VWS V14.01,2013-06-16 03:52:00,
2013-06-15 23:57:00,64.4,62.4,30.11,SSE,148,0.0,0.0,93,0.00,,,0.00,0.00,VWS V14.01,2013-06-16 03:57:00,